GFSSGP_con_sbcape_159.txt.gz
CAPE
1597 778 223 291 56 1 0 68 87 73 138 159 197 171 158 27 12 13 101 68 106 99 214 770 1877 2040 1840 2006 2386 2193 2522 2157 2038 2442 2115 1917 1994 1888 1712 1761 1772 1659 1197 922 819 738 640 915 933
952 534 125 540 0 71 74 73 137 161 184 109 94 3 11 116 147 199 80 118 111 205 203 665 2032 2264 1966 1978 2184 2296 2066 1955 1955 1959 1949 1760 1890 1855 577 521 574 492 833 1373 1194 992 1261 1168 1223
136 171 1096 762 1 6 187 149 207 283 204 63 179 110 133 54 167 182 101 89 102 65 213 872 1957 2118 1795 2051 2372 2136 1851 1816 1955 2065 1939 1908 1853 1101 553 1620 1680 1731 1388 1205 1193 934 1024 956 1084
940 1018 1066 0 77 122 319 218 145 163 125 114 44 75 256 293 242 120 46 15 0 8 313 1022 1555 1416 1719 1946 1989 1984 1839 1891 1983 2007 1887 1772 1068 590 994 1662 1568 1266 1483 1303 910 839 809 836 827
339 173 101 0 0 295 329 280 113 79 126 110 100 59 343 301 70 35 13 1 5 78 146 531 1854 1906 1864 2029 1917 2189 2219 2132 2114 1904 1850 1227 922 922 1187 1158 977 1306 1256 1214 1252 1079 1090 1094 1030
0 32 0 1 58 220 279 319 284 241 200 127 57 59 366 131 11 4 0 0 4 76 276 415 1433 1814 1868 1793 1966 2111 1972 1654 1000 1503 1893 1901 1664 1674 1337 1240 1203 1500 1523 1481 1336 1196 1055 1090 1065
124 0 0 1 101 244 400 248 246 230 177 123 127 247 415 133 4 0 0 0 1 67 49 61 608 981 1794 2037 2252 2177 1814 1851 1808 1505 1034 1484 1769 1714 1072 1276 1631 1497 1564 1485 1468 1434 1376 1349 1150
258 26 0 0 52 145 371 392 326 288 216 197 140 201 542 80 3 0 4 1 1 0 22 44 94 337 524 1365 2095 2141 2066 1326 1568 1726 1509 1366 991 1132 1653 1769 1657 1510 1511 1430 1411 1459 1631 1713 1414
102 55 67 101 292 485 382 503 480 330 225 229 195 263 238 60 10 7 7 0 0 1 2 14 44 85 122 108 1257 1506 1351 1341 1406 1408 1525 1390 836 890 848 965 1101 1005 1036 1120 1263 1342 1664 2023 1627
97 28 54 0 261 630 638 459 411 434 318 216 316 362 215 117 28 5 6 7 0 0 0 0 3 39 19 0 57 224 1158 716 547 423 324 393 758 686 1314 1204 1448 1383 1482 1632 1678 2078 2179 2051 977
50 0 0 146 446 593 453 188 373 362 315 297 294 184 354 191 44 1 0 0 0 0 0 0 0 3 2 0 1 72 776 768 680 589 468 506 619 450 562 371 375 643 1124 1055 1105 918 978 1069 1057
0 0 11 164 621 490 437 220 332 299 333 428 428 390 339 263 85 2 0 0 0 0 0 0 0 5 3 0 0 22 443 345 398 568 700 881 573 614 520 718 504 457 500 804 853 762 644 793 689
0 0 44 257 340 434 423 368 248 477 611 537 543 402 245 115 41 30 0 0 0 0 0 0 0 0 0 2 19 6 97 270 339 349 732 368 337 393 726 775 739 733 707 845 924 960 1141 1029 779
0 12 79 160 293 400 510 452 425 579 763 781 705 502 277 198 158 83 48 7 0 0 0 0 0 0 0 7 12 51 103 165 268 879 397 605 506 370 591 915 650 464 658 790 709 751 873 861 795
0 24 56 97 164 358 487 430 455 607 785 908 817 614 476 336 253 194 201 131 10 0 0 0 0 0 0 1 17 22 79 292 622 715 839 1019 753 557 668 633 529 234 291 466 357 246 373 192 290
0 0 40 35 124 217 19 175 551 641 681 843 803 787 719 515 443 388 314 215 112 7 0 0 0 0 0 0 0 0 3 18 48 170 478 775 854 761 739 643 433 620 442 372 134 31 0 8 0
0 0 0 13 31 94 35 148 596 655 684 685 735 682 624 493 376 384 400 264 191 81 7 0 0 0 0 0 0 0 0 9 175 565 954 1211 1230 978 1030 951 827 920 494 275 37 17 0 0 0
0 0 0 1 30 40 27 60 402 513 672 662 598 613 639 569 444 383 403 351 324 103 8 0 0 0 0 0 0 0 116 527 807 924 963 803 734 485 244 273 361 179 555 209 72 16 0 0 0
0 0 0 0 0 16 32 19 165 461 570 542 483 520 486 475 418 347 311 345 221 2 0 0 0 0 19 98 94 35 178 569 897 463 576 280 312 147 13 63 30 90 620 668 489 136 0 0 0
0 0 0 0 0 0 6 15 104 65 164 251 446 497 414 288 307 305 253 161 75 2 0 0 0 0 57 163 413 525 596 722 883 471 318 230 328 309 0 0 0 1 102 546 407 147 33 0 0
0 0 0 0 0 0 1 0 18 8 16 7 325 462 417 291 230 264 270 227 110 18 0 0 0 0 69 356 754 854 963 1044 712 427 223 119 281 252 0 0 0 0 2 280 643 327 142 103 159
0 0 0 0 0 0 0 3 0 0 0 17 15 76 254 338 140 193 248 291 283 225 161 85 107 122 164 438 924 1141 1223 1203 1010 770 398 151 7 45 0 0 0 0 0 53 558 719 313 40 451
0 0 0 0 0 0 0 0 0 0 0 0 6 5 9 50 48 87 197 241 355 409 372 390 340 333 491 631 900 1123 1221 1074 750 674 665 362 8 0 0 5 65 62 55 184 930 1080 1097 762 861
0 0 0 0 0 0 0 0 0 0 0 0 10 3 0 0 5 6 83 103 213 476 476 514 515 517 1149 1111 1083 1210 1307 1364 1419 1399 1442 1118 320 13 42 122 2 198 336 678 1146 1116 1060 965 909
0 0 0 0 0 0 0 0 0 0 0 0 0 7 0 0 0 0 8 26 61 347 560 634 506 615 935 1393 1236 1198 1297 1330 1558 1573 1511 1282 617 697 865 706 763 904 1176 1116 1111 992 688 414 387
0 0 0 0 0 0 0 0 0 0 0 0 0 0 0 0 0 0 0 14 6 66 400 660 629 664 954 1433 1594 1444 1365 1666 1859 1943 1805 1504 906 660 119 51 3 77 63 70 47 3 3 19 7
0 0 0 0 0 0 0 0 0 0 0 0 0 0 0 0 0 0 0 0 2 64 378 619 749 704 994 1335 1300 809 835 523 1143 1337 809 925 586 651 204 1 11 39 45 5 0 0 0 0 3
0 0 0 0 0 0 0 0 0 0 0 0 0 0 0 0 1 0 8 10 13 207 334 573 741 859 1176 313 477 382 477 175 82 250 468 411 405 242 241 160 90 75 50 42 20 0 0 0 0
0 0 0 0 0 0 0 0 0 0 0 0 0 0 0 17 9 34 70 115 205 686 969 960 1327 1725 334 282 198 113 190 234 112 58 276 70 139 330 149 56 52 121 148 143 28 1 21 38 77
0 0 0 0 0 0 0 0 0 0 0 0 20 7 6 0 10 129 189 398 245 90 96 285 319 248 71 85 107 126 185 3 0 11 10 0 0 0 0 0 0 0 36 18 33 128 156 208 81

GFSSGP_con_sbcape_162.txt.gz
CAPE
1596 1273 190 408 0 0 0 0 17 32 96 82 61 139 43 41 41 190 145 129 171 202 397 1029 2003 2159 1999 2413 2566 2692 2783 2477 2386 2279 2051 1662 1722 1775 1756 1492 1638 1320 1372 859 816 1021 1054 1251 1286
895 433 112 319 0 0 6 0 0 90 30 75 62 8 23 160 130 194 64 145 131 166 456 1214 2175 2341 1985 2106 2553 2674 2522 2055 2124 1927 1701 1725 1636 1052 1342 1212 925 760 1090 954 743 804 970 1001 871
849 302 787 43 0 0 37 41 109 139 129 106 120 113 92 189 99 109 68 206 208 188 571 1015 2388 2322 1910 2045 2534 2505 2559 2211 2220 1933 1752 1848 981 532 1019 1013 973 1490 1066 905 1192 1300 1099 1070 985
472 887 173 21 0 6 96 76 205 103 118 82 66 128 302 291 269 104 133 118 154 224 414 1871 2264 1918 1957 1966 2106 2292 2314 2504 2354 1957 1862 937 691 1237 1670 1501 1560 1547 1563 928 898 918 949 914 589
141 19 0 0 0 165 149 115 50 34 90 102 75 106 241 254 66 59 43 35 119 155 348 1093 2359 2373 2424 2594 2387 2378 2335 2166 2002 1843 1252 898 782 1316 1597 1111 1295 1319 1230 1334 1107 973 1139 1123 1170
0 0 0 0 66 122 193 147 93 96 26 81 90 152 340 151 68 1 4 20 159 156 214 656 1623 1844 2272 2042 1893 1987 1884 1937 2046 1902 1689 1539 1357 1244 1073 1245 1634 1696 1672 1550 1394 1303 1365 1204 994
53 0 0 0 100 187 208 121 102 100 67 55 58 131 319 76 2 0 0 6 59 65 98 222 631 1272 1725 1717 1895 1793 1873 1846 1219 1239 1742 1822 1597 1207 1306 1792 1594 1680 1687 1502 1411 1369 1453 1512 1447
101 0 0 0 60 123 229 235 225 201 144 117 61 109 339 74 1 0 4 7 9 27 21 87 162 263 573 1418 1796 2005 1837 1701 1558 1479 1280 1022 1109 1635 1661 1740 1750 1658 1589 1502 1440 1431 1569 1472 1447
68 0 0 13 120 267 315 409 381 218 245 265 214 169 146 8 1 0 0 9 5 23 11 34 51 89 45 355 1214 1233 1626 1639 1621 1507 1816 1188 803 824 801 915 963 1043 960 932 1149 1275 1600 1907 1874
2 0 23 36 218 417 535 423 416 375 235 301 398 268 158 36 1 0 0 8 0 3 3 1 12 51 10 47 94 290 886 600 453 375 340 374 659 688 1383 1453 1492 1526 1708 1903 2009 2160 2148 1788 1435
37 0 0 249 585 604 360 247 448 302 244 164 380 354 231 96 11 0 0 0 0 0 0 0 1 2 0 0 2 130 623 558 613 542 329 529 481 483 492 360 363 521 1029 1099 1221 1108 937 1032 1152
0 2 1 727 622 268 230 307 347 287 303 313 246 294 230 162 47 0 0 0 0 0 0 0 0 0 0 0 0 0 181 286 234 378 664 689 505 518 521 498 767 513 646 829 860 903 1006 1111 962
0 1 283 471 391 212 209 262 275 470 467 457 258 366 351 177 74 0 0 0 0 0 0 0 0 1 0 0 0 7 9 102 216 411 371 624 377 328 604 975 756 625 525 663 1016 1071 1112 1178 1016
0 82 203 273 224 235 302 259 288 623 529 543 255 209 162 103 80 25 0 0 0 0 0 0 0 0 0 1 3 1 23 80 210 208 615 581 627 498 269 645 781 495 444 750 906 849 908 827 708
16 30 108 161 215 426 254 360 295 722 731 648 368 232 141 101 54 65 18 0 0 0 0 0 0 0 0 0 0 0 0 118 74 408 488 502 832 624 580 669 636 367 291 566 568 330 199 81 87
0 1 60 64 140 365 26 215 446 726 789 764 690 492 366 248 210 163 146 97 19 0 0 0 0 0 0 0 0 0 0 0 4 72 128 435 913 744 551 637 595 649 714 619 450 139 35 16 15
0 33 0 59 74 247 140 119 471 596 749 799 769 665 580 384 305 206 186 166 75 3 0 0 0 0 0 0 0 0 0 0 0 112 573 880 1055 1237 806 897 914 836 721 499 366 5 0 0 0
0 0 0 44 27 54 117 79 477 557 573 633 662 605 570 416 291 231 211 191 99 33 0 0 0 0 0 0 0 0 0 0 120 575 936 864 931 934 622 765 643 460 773 472 405 170 50 0 10
0 0 0 4 3 20 15 35 380 528 576 540 502 510 444 393 303 150 192 165 85 27 0 0 0 0 0 0 0 0 0 2 330 660 675 331 332 326 44 13 8 142 439 757 563 189 46 45 0
0 0 0 0 0 16 0 8 153 374 504 526 468 388 441 378 272 157 146 152 120 19 0 0 0 0 0 0 39 75 75 113 325 566 304 203 238 435 81 0 0 0 94 100 384 295 85 0 0
0 0 0 0 0 0 1 0 63 115 371 441 413 317 329 298 182 92 84 90 97 1 0 0 0 0 0 0 90 320 534 758 756 609 225 22 165 196 58 0 0 0 0 0 124 390 183 315 100
0 0 0 0 0 1 0 0 0 38 78 46 40 139 243 246 116 64 62 31 23 12 0 0 0 0 0 0 216 320 441 604 688 677 532 344 12 12 0 0 0 0 0 0 0 361 468 102 499
0 0 0 0 0 0 0 0 0 0 7 40 31 0 189 204 131 62 78 46 13 11 1 0 0 0 0 6 218 401 609 725 603 573 769 784 350 4 0 0 0 0 2 59 302 707 905 560 750
0 0 0 0 0 0 0 0 0 0 7 21 18 7 0 104 156 85 43 49 50 73 64 68 104 48 39 130 242 381 620 806 849 936 1094 1230 726 313 281 354 154 213 336 567 975 970 1033 971 699
0 0 0 0 0 0 0 0 0 0 0 1 1 8 0 0 13 64 1 20 49 121 144 222 193 213 215 364 499 540 663 882 1025 1175 1181 1186 1118 667 694 356 520 636 594 870 1034 987 637 352 300
0 0 0 0 0 0 0 0 0 0 0 0 0 0 0 0 0 0 0 1 43 120 212 316 319 336 383 588 791 846 873 955 1133 1316 1339 1266 1211 724 663 187 99 60 133 103 48 23 13 10 19
0 0 0 0 0 0 0 0 0 0 0 0 0 0 0 0 0 0 0 0 0 71 275 360 432 393 477 580 956 1044 1102 1151 1148 1112 991 893 560 694 533 32 15 37 17 37 7 0 0 1 17
0 0 0 0 0 0 0 0 0 0 0 0 0 0 0 0 0 0 0 0 0 17 168 338 450 489 455 645 955 1160 1127 650 641 633 453 444 432 261 252 276 247 248 200 180 138 158 134 30 111
0 0 0 0 0 0 0 0 0 0 0 0 0 0 0 0 0 0 0 0 0 0 42 245 362 476 564 663 657 709 694 557 132 29 120 60 53 104 95 14 0 20 97 146 65 99 58 216 324
0 0 0 0 0 0 0 0 0 0 0 0 0 0 0 0 0 0 0 0 56 176 98 219 628 878 477 339 267 263 209 0 0 0 0 0 0 0 0 0 0 2 12 86 111 168 250 233 209

GFSSGP_con_sbcape_165.txt.gz
CAPE
1247 1133 747 831 144 0 83 108 103 133 214 172 193 143 105 99 119 159 111 165 116 215 425 1209 2080 2329 1884 2543 2656 2263 2450 2053 2118 1703 1937 1683 1533 1594 1402 1470 1560 1099 890 1013 1075 1230 1428 1272 1354
1354 299 323 504 0 0 27 82 164 176 163 210 147 87 122 110 175 166 116 175 185 268 708 1204 1600 2051 2314 2507 2494 2495 2418 1958 1654 1513 1741 1506 1553 1596 1422 799 865 1120 759 666 759 874 864 1007 1253
567 570 1012 10 5 0 0 152 192 266 203 180 116 165 90 147 96 132 124 148 203 253 854 1092 1792 2119 1943 1878 2034 2108 2201 2124 1974 1835 1647 546 568 683 536 816 1440 823 888 1348 1236 1196 1145 1076 1055
703 1113 45 132 82 254 280 347 329 195 182 114 140 272 208 202 205 161 149 169 120 159 516 1132 1931 1858 1744 1980 2241 2264 2170 2326 2157 1653 1021 618 1616 1578 1596 1648 1595 1300 996 1029 1054 1019 896 580 594
537 107 80 90 222 338 349 302 256 209 207 170 80 103 210 185 158 197 229 210 80 138 502 1353 1846 1824 1690 1952 1942 2012 2129 2277 1860 1213 773 721 1500 1453 1078 1196 1090 1101 1163 1176 973 880 875 965 1004
216 0 43 41 208 325 361 266 238 230 190 153 201 172 274 159 156 129 175 229 192 152 200 1127 1336 1514 1654 1746 1610 1728 1695 1923 1616 1278 1084 1134 1149 1024 1381 1540 1610 1599 1500 1395 1298 1265 1140 1039 929
370 54 13 99 307 342 174 193 252 209 163 149 13 176 174 54 8 1 112 60 35 101 242 364 470 1615 1792 1873 1996 2439 1526 1332 1619 1694 1677 1400 1171 1356 1865 1767 1652 1604 1513 1324 1321 1310 1470 1450 1198
365 0 27 23 273 461 282 323 291 210 253 219 103 100 64 24 0 15 76 27 15 57 51 147 149 303 1611 1601 2285 2223 2144 1407 1330 1126 1064 1183 1369 1472 1352 1345 1520 1449 1331 1295 1273 1275 1235 1170 1112
194 65 107 131 235 499 437 449 389 290 387 462 260 216 133 2 3 6 40 8 0 3 21 77 293 377 1201 896 1580 1769 1561 1782 1671 1689 1448 1362 1121 944 685 982 992 1115 1092 1240 1566 1749 1962 2135 1922
117 74 106 144 487 616 580 565 430 393 247 373 338 129 57 10 1 0 4 4 5 0 10 84 77 55 247 130 216 1258 1107 1058 1192 1295 1399 1192 1475 1552 1631 1307 1343 1628 1657 1758 1761 1870 1757 1431 1563
101 30 69 617 659 740 570 473 472 345 249 222 480 270 151 51 5 0 0 0 1 24 81 7 157 246 74 0 55 409 1048 1030 1336 1564 1679 1838 1647 1568 1397 1451 1667 1591 1119 1480 1394 1543 1489 1627 1765
2 29 537 818 607 502 271 371 376 338 437 298 454 381 206 150 71 32 0 0 4 12 23 15 79 24 47 0 3 119 538 621 677 884 1506 1795 1539 1566 1885 1973 1888 1928 1664 1728 1941 1828 1757 1781 1686
0 379 736 586 332 190 266 315 522 561 449 280 279 302 216 221 235 174 59 0 0 4 12 18 37 70 87 72 48 68 64 137 406 808 1425 1357 1736 1706 1083 1591 1932 2044 1912 1796 2017 1926 1720 1610 1379
259 609 549 277 120 286 170 441 294 626 587 306 263 215 158 169 257 200 70 3 0 0 0 5 11 50 33 82 51 51 72 147 606 1054 1379 1574 1722 2097 1777 1556 1813 1759 1656 1288 1501 1740 1659 1386 844
326 454 417 262 215 297 298 203 349 647 650 387 242 198 175 162 135 237 125 60 4 0 0 0 10 10 17 56 51 51 37 50 201 501 953 986 1429 2195 2202 2033 2017 1636 1463 1879 1746 1663 1232 618 148
142 219 263 312 275 253 96 101 657 669 658 562 369 238 211 181 240 258 220 112 8 0 0 0 0 0 6 13 29 23 44 51 75 88 712 1158 1897 2283 2435 2253 2033 1877 2177 1902 1486 1316 759 427 438
1 146 114 261 175 262 267 124 478 749 751 727 704 634 517 485 480 488 396 256 179 72 0 0 0 0 0 8 16 26 44 63 68 85 363 1438 2457 2367 2469 2175 2196 2189 2283 1824 590 824 602 869 956
87 92 52 176 148 178 271 124 492 759 794 849 862 769 689 671 553 505 463 411 438 334 156 43 8 13 10 0 10 0 24 36 66 349 916 1966 2063 2094 2061 1937 1908 2020 1770 1950 1706 1700 1411 1192 1128
11 22 44 41 49 105 106 119 362 661 723 768 895 906 839 720 504 568 557 493 413 387 385 295 206 157 28 0 0 0 0 4 140 730 1485 1957 1738 1725 1903 1549 1145 1024 1228 1311 1505 1324 1647 1436 993
0 0 0 0 5 117 74 82 53 617 663 662 735 843 814 777 753 626 580 584 499 474 480 445 358 257 83 16 25 28 230 420 736 1084 1698 1731 1691 1613 1452 1379 1036 598 357 586 946 1407 1526 1439 865
0 0 0 0 0 20 55 58 77 365 623 677 729 729 780 772 728 778 672 672 621 562 555 391 428 327 168 60 35 183 433 763 992 1385 1911 1442 1259 1361 1285 1150 964 449 97 185 618 1141 1617 1867 1537
0 0 0 0 0 0 22 26 123 229 554 554 669 694 677 729 820 771 797 719 660 636 524 538 487 341 236 188 204 521 209 415 793 1415 2011 1781 1401 1126 1016 879 493 205 134 388 715 941 1514 1732 1268
0 0 0 0 0 20 28 40 68 39 267 400 480 615 630 646 695 784 694 664 612 594 571 513 552 430 292 228 395 316 432 580 1065 1551 1737 2282 2005 1570 1191 840 531 432 389 728 1185 1686 1997 1822 1635
0 0 0 0 0 0 28 32 18 62 204 263 261 309 331 438 638 734 731 652 641 554 537 562 630 748 511 363 384 648 1126 1129 1321 1731 1721 2049 2192 2240 1754 1287 1241 1291 1292 1404 1683 2144 2260 2386 2261
0 0 0 0 0 0 0 6 2 8 9 104 192 232 203 185 437 643 720 693 685 616 576 588 902 1097 794 614 474 681 1050 1158 1600 1694 1753 2306 2002 1818 2324 1757 1684 1601 1689 1531 1583 1617 1275 1007 691
0 0 0 0 0 0 0 0 0 0 0 0 15 132 172 130 210 524 602 707 787 685 761 804 1103 1146 1148 994 1001 1412 1375 1316 1475 1786 2104 2417 2372 2199 1717 1678 1276 876 455 508 963 814 835 861 893
0 0 0 0 0 0 0 0 0 0 0 0 0 6 71 141 116 280 509 539 732 763 870 946 1506 1408 1389 1327 1559 1794 1797 1919 1933 2239 2581 2541 2182 1504 1178 775 675 696 752 1031 1014 723 1027 1018 1060
0 0 0 0 0 0 0 0 0 0 7 0 0 1 55 167 113 139 293 449 615 746 900 1038 1151 1681 1511 1476 1608 1744 2012 2269 2421 2527 2504 1986 1631 1381 1162 981 808 707 537 487 896 921 800 1082 1200
0 0 0 0 0 0 0 0 0 8 0 0 0 1 142 245 177 112 153 313 515 536 723 993 1153 1439 1640 1688 1782 1948 2132 2242 2335 2085 1514 930 764 524 396 408 440 548 547 960 974 960 944 970 979
0 0 0 0 0 0 0 0 0 0 0 0 0 26 48 142 191 205 166 245 461 517 584 847 1138 1368 1620 1692 1868 2005 1997 1616 1317 1091 532 289 189 260 353 392 501 689 708 387 189 49 94 134 145

GFSSGP_con_sbcape_171.txt.gz
CAPE
1056 1626 2289 1924 2110 114 19 155 134 329 425 360 389 548 449 182 33 69 216 140 185 185 294 997 1607 2143 1965 1842 2143 1745 1775 1523 1824 1872 1804 1702 1913 1919 1435 1313 1290 1329 1440 1718 1478 1192 1469 1557 1396
1613 1730 1627 1523 251 91 63 63 138 390 379 425 347 336 495 349 73 118 162 191 218 210 244 1216 1710 1913 1945 1791 1963 2119 1641 1738 1799 1920 1932 1868 1497 1220 1405 1015 834 1096 960 873 1038 1249 1387 1556 1688
1087 1360 1777 292 47 102 55 35 73 114 220 312 329 431 301 210 118 97 113 94 155 206 721 721 2023 2312 1902 2067 2142 1929 1692 1759 1423 1389 1332 945 691 1614 1228 977 1809 1667 1528 1423 1395 1211 1105 1047 1042
1668 2041 1486 59 39 44 60 39 25 15 74 280 350 459 210 185 207 66 56 94 178 219 450 1284 1919 1804 1869 1843 1810 1816 1714 1644 908 905 1265 1787 1576 1476 1434 1456 1529 1440 1434 1323 1070 963 968 1044 1110
1613 1500 286 55 13 34 56 78 129 111 214 215 354 387 365 258 224 17 0 0 79 452 613 1136 1761 1617 1860 1884 1891 1793 1754 1170 740 1699 1760 1614 1636 1659 1384 1188 1373 1334 1108 1035 1069 856 822 847 932
1278 475 102 93 50 12 129 149 444 248 404 449 428 284 263 270 65 10 0 0 25 464 875 757 1287 1681 1694 1720 1877 1753 1235 762 672 1616 1553 1198 1598 1639 1537 1357 1299 1304 1231 1152 1126 1068 998 933 875
1166 181 108 76 66 16 145 178 452 447 284 299 462 270 186 244 159 28 0 2 43 264 791 1160 1422 1147 1676 1727 1780 1740 1770 1670 1492 1257 1162 1366 1558 1487 1463 1560 1517 1414 1212 1206 1141 1076 1088 868 802
221 330 65 18 13 71 121 132 632 629 434 460 559 357 120 202 80 2 0 0 39 166 499 959 770 1558 1165 1155 1410 1363 1494 1527 1542 1428 1094 1164 1547 1395 1211 1494 1235 1094 1060 976 944 889 807 986 971
201 148 96 4 3 99 149 210 269 461 537 394 342 354 210 237 65 5 0 5 16 43 220 773 960 1350 1109 863 1128 1737 1356 1155 899 698 956 1042 438 705 675 792 1029 1088 1159 1421 1730 1970 2014 2033 2603
92 144 54 4 32 92 114 233 375 638 649 664 746 297 276 300 184 51 10 0 0 0 57 218 632 982 656 353 1490 1081 1338 1651 1172 1270 1505 1458 1290 1101 1019 1097 1594 1797 1874 2031 2090 1963 2166 2329 1275
193 201 31 32 95 86 98 216 304 285 924 634 532 353 200 77 141 108 20 0 0 0 0 74 328 998 515 872 1337 1615 1399 1426 1708 1972 2418 1900 1811 1809 1791 2119 1947 2461 1966 1683 1843 1761 1752 840 822
275 175 65 37 60 87 96 185 235 496 633 778 664 474 281 93 3 32 11 12 1 42 31 75 205 306 421 642 1433 1439 899 1330 1735 1754 2211 1918 2051 1557 1426 1658 2269 2073 1912 1522 1934 1702 1885 1382 1261
339 179 5 2 27 91 148 203 338 651 717 694 614 517 376 295 272 229 36 98 119 52 73 96 397 624 189 1077 1349 1086 525 1040 1082 1595 2173 2193 2313 2526 2452 1973 1741 1600 1277 1709 2306 1909 2020 1897 1563
339 298 49 25 56 86 156 276 315 618 753 663 577 465 428 484 285 226 130 17 131 116 205 171 320 259 157 600 691 1048 544 819 993 1293 1888 1985 2118 3192 3124 2997 2007 2512 1630 1090 1096 2039 1652 1401 1029
368 358 171 174 119 96 92 112 341 655 738 777 640 522 350 287 338 386 255 102 216 266 193 87 131 128 402 658 501 743 284 331 628 772 1297 1762 2362 2587 2720 1893 1778 2191 2550 2432 2647 1676 1962 1822 864
358 222 158 283 179 125 289 108 415 556 677 705 768 741 591 451 455 462 425 302 132 279 289 199 31 71 283 421 903 603 331 504 460 433 456 803 1532 1987 2255 1654 2066 2658 1657 1357 1475 964 1116 1287 1058
198 21 42 102 213 196 389 105 215 379 408 624 711 733 725 814 734 575 436 497 303 219 293 220 105 29 77 388 539 491 433 448 333 201 168 497 1633 1902 2042 1544 1736 2562 1712 1446 1661 1236 1066 785 624
154 172 103 114 119 193 248 136 201 204 199 292 417 545 584 644 601 781 753 661 580 438 189 445 327 413 355 270 595 433 231 246 209 170 199 618 1741 2284 2313 1774 1862 2163 1562 1730 1592 1822 1149 1049 500
117 55 75 91 46 97 175 331 404 270 144 120 175 304 429 505 641 649 594 606 646 601 268 394 631 1699 1008 762 502 274 114 114 157 169 236 666 1716 2020 2468 2175 1497 1493 1693 1423 2083 1809 2086 912 316
45 64 68 4 46 56 18 24 461 436 190 98 76 106 93 174 404 674 770 708 724 810 739 443 767 1438 1151 909 1518 791 474 202 260 310 714 1263 2128 2455 2534 2821 2481 1702 1209 1465 1716 2232 1550 510 709
46 56 16 19 0 0 0 1 82 409 213 28 94 157 102 49 214 458 652 792 784 979 1178 1343 1723 1728 1693 1589 1105 1107 977 957 637 497 623 992 1807 2198 2411 2917 3083 2906 2174 601 1683 1860 2175 663 646
52 11 1 1 0 14 0 5 0 161 228 48 9 55 204 112 145 349 519 653 620 720 1042 1443 2058 2403 2114 2594 1764 2712 1211 986 371 689 468 1385 1926 2383 2546 2785 2997 3216 2538 3177 2074 2026 2709 3552 1984
13 11 0 1 0 2 0 12 9 18 173 131 43 12 16 267 222 295 371 528 585 634 753 1077 2219 2525 2814 2732 2648 1740 1821 738 384 356 2430 2058 3207 2516 2286 2845 3069 3343 2854 3275 2593 3157 3383 2927 2234
3 0 0 0 0 10 20 3 171 7 43 176 105 50 51 125 278 333 418 438 488 500 646 927 2146 2397 2243 2166 1960 2341 2909 1991 977 1336 1397 1706 1701 1849 3067 2786 3128 3342 3210 3778 3221 3249 3405 3310 3156
7 3 5 7 5 24 36 3 15 0 0 28 189 88 70 144 242 383 524 592 628 501 512 640 2332 2324 1956 1760 1778 1805 2045 2189 2019 2327 2006 2893 1818 1723 2259 3132 3335 3536 3310 3116 3213 2877 2763 2775 3369
0 0 8 28 27 61 41 11 59 4 1 0 38 189 63 91 158 359 456 628 796 672 706 807 1967 2814 2314 1886 2393 2581 2812 1497 1505 2358 2232 2408 2094 2601 3061 3290 3115 2929 2868 2578 2147 1939 2125 3166 3006
0 0 1 26 43 48 46 2 5 0 0 0 0 59 195 105 200 396 529 675 776 1002 1029 1012 2057 2864 2643 2363 3207 3510 3144 3086 2557 3325 4040 2814 3972 2801 3151 2908 3094 2475 2165 2211 2627 2131 2306 2307 2289
0 0 0 8 43 66 59 1 12 0 0 0 4 0 104 225 219 347 569 798 881 951 1069 1266 1412 2548 2489 2561 3023 3209 3102 3116 3145 3144 3146 3965 3727 3214 3112 2645 2203 2034 2059 1890 1954 1804 2295 2113 1921
0 0 0 5 4 77 45 32 17 1 42 92 84 56 49 235 216 397 581 743 986 903 1084 1277 1487 2244 2801 3689 3660 3996 3189 3399 3540 3474 3732 3529 3108 2856 2308 2096 2235 2027 1912 1744 1836 1953 1770 1555 1244
0 0 0 3 10 3 64 72 0 1 0 7 83 138 147 300 226 403 646 981 1289 1278 1194 1427 1712 2229 3294 3124 3375 3258 3380 3310 3416 3765 3442 2634 2213 1876 2111 2131 1952 1852 1498 1473 835 477 233 164 152

GFSSGP_con_sbcape_174.txt.gz
CAPE
1098 1304 2135 2118 1412 1067 78 104 157 395 366 301 359 272 77 49 37 3 149 157 157 196 311 1304 2331 2242 1827 2006 2017 2064 2184 2173 2360 2228 2265 2242 2336 2003 1672 1800 1712 1774 1813 1372 1353 1498 1333 1409 1585
459 1744 2016 1658 1079 189 145 205 306 253 298 313 415 371 73 125 55 91 135 151 185 208 306 421 1691 2008 1896 2177 2140 2115 1900 1843 1722 2244 1745 2191 2220 2252 1508 805 1077 1686 1051 1115 1053 1245 1527 1658 1640
468 1578 1481 1859 188 57 35 45 8 77 95 295 417 322 219 71 87 100 121 129 146 181 542 961 1746 1742 1591 1892 1883 1853 2014 1911 1795 1820 1652 1546 1998 1906 1161 1706 1711 1728 1606 1577 1409 1292 1227 1102 1087
1669 1908 1774 281 24 60 43 31 11 290 152 350 256 339 180 110 54 40 123 153 174 205 475 1243 1654 2035 2009 1753 1721 1938 1780 1277 1299 1385 1670 1444 2056 2061 1728 1623 1527 1509 1408 1263 1099 1009 1063 1134 1015
1676 1601 673 11 10 41 24 16 176 235 245 363 362 282 238 121 33 49 66 148 165 245 1059 1437 1898 1821 1736 1803 1876 1723 1742 1353 1706 1596 1682 1527 1755 1875 1424 1476 1417 1305 1172 1117 975 898 849 826 852
992 1062 706 34 11 31 53 269 418 209 431 367 348 214 223 160 37 21 36 141 127 372 764 1088 1470 2040 1905 1890 1806 1761 1232 1051 1823 1777 1281 1563 1997 1737 1500 1213 1148 1121 1075 1072 990 921 974 867 829
614 348 280 55 0 63 61 261 312 223 333 334 252 197 151 56 0 0 10 120 359 549 769 1272 1419 1515 1739 1748 1803 1819 1552 1104 1019 1111 1022 1425 1510 1464 1417 1422 1375 1236 1109 1114 1058 965 1080 1022 1238
588 238 72 55 15 25 67 634 419 394 437 485 250 205 192 103 2 0 16 70 148 406 639 854 988 1331 1508 1302 1567 1885 1835 1699 1424 1020 1266 1640 1460 1269 1175 1647 1371 1111 1030 919 984 929 1475 1713 1988
96 49 5 8 14 25 41 291 321 311 517 369 434 241 191 33 5 1 0 42 120 115 376 846 661 1561 1606 1175 1110 1633 1256 1490 1489 1380 1110 1703 1084 1035 1146 1464 1093 746 1039 870 1542 2109 2533 2848 3073
29 6 0 0 15 77 118 106 362 710 578 531 412 298 177 12 0 0 0 2 0 3 65 352 825 1082 1159 167 1536 1729 1382 1453 576 1210 690 1106 1234 1611 1166 1022 1937 1795 1851 2033 2821 2527 2278 2858 963
38 0 6 35 32 33 95 144 292 621 900 629 373 359 252 51 19 0 8 0 0 2 58 93 766 1082 733 1542 2138 1297 890 1918 2304 1907 1684 2221 2325 1196 1960 477 1573 2115 2517 1714 1884 15 1 614 1757
11 0 2 14 35 55 119 105 488 755 834 592 397 481 281 200 91 24 0 0 0 0 0 8 328 813 395 1467 671 401 1050 415 620 2244 2600 3492 2590 2510 2305 1079 1916 2638 2448 2726 1030 277 113 1650 1947
11 0 1 15 40 96 128 219 418 502 670 515 362 270 268 122 34 2 0 0 0 0 0 50 1161 1397 1217 1498 73 78 313 1535 2032 2798 2733 3206 2657 2575 2769 2463 2611 2996 1666 2205 2327 2135 2684 1812 1864
20 0 0 4 48 75 204 276 484 497 659 673 434 372 269 127 126 136 6 0 1 72 36 178 1017 987 843 2048 1947 1674 2051 2028 2647 2930 2778 2639 3044 3274 3306 2439 2483 2328 1253 2269 2148 2730 2618 2644 1144
80 54 41 61 90 145 160 171 484 617 665 662 569 444 337 240 232 188 109 137 98 137 151 590 828 386 1237 1779 1685 1389 2110 1165 1856 2401 2786 2404 3057 3137 2653 2095 2885 2586 2899 3046 3636 3145 3002 2711 1977
64 84 78 65 123 97 103 249 499 655 674 769 747 644 449 393 232 267 205 118 420 326 663 798 138 212 1003 1610 1555 1792 2089 1719 1983 1681 1691 1910 2151 3299 3029 2365 718 2159 2662 2176 2129 2269 2237 1925 1374
10 43 44 171 192 311 207 166 396 449 528 711 774 680 619 501 497 578 259 150 256 511 469 1185 789 499 1107 1360 1775 2136 1905 1528 1197 1512 1184 2483 2044 2805 2787 2254 2465 2695 2892 2849 2175 2757 2522 1964 1704
11 13 5 41 66 316 70 88 267 331 392 524 652 645 604 531 502 598 518 407 345 192 821 1136 1062 1441 1713 1225 1900 1654 1607 1608 1380 1380 1384 2053 2619 3102 3395 2388 2041 2901 2605 1248 970 2236 2667 2160 1744
0 0 26 134 26 150 52 95 174 147 110 222 394 528 518 504 703 650 510 480 427 498 818 1256 1510 1945 1972 1414 1265 1268 902 1022 1270 1622 1541 1508 2459 3197 3500 3037 2948 3274 2321 2934 2962 3016 2857 2471 2098
0 12 107 88 0 70 127 301 167 72 51 44 111 294 352 425 437 597 1075 990 802 697 990 1347 1542 2155 1733 1542 2094 2014 2395 1755 2415 2179 2748 2111 2508 3541 3265 3143 3391 3517 2953 2698 2251 2880 2671 2101 2007
65 63 13 0 0 0 34 283 315 144 54 7 2 17 62 166 532 836 900 975 909 959 1169 1044 1456 1892 1919 1829 1949 2796 2205 2063 1437 1498 1315 1563 2380 3490 3416 3345 3583 3415 3836 2578 3076 3015 2887 2069 2126
51 3 6 0 0 1 0 15 314 239 41 35 16 0 0 67 412 1022 1017 1178 973 1214 1442 1394 1495 1550 1940 2000 1525 2521 1382 1492 1223 2453 2005 2852 2807 2859 3297 4013 3940 4097 3687 3639 3091 3218 3231 3156 2329
0 0 0 0 0 3 1 51 14 260 107 5 0 14 6 24 159 375 550 1096 1092 1067 1401 1834 2567 2440 2210 2140 2028 1674 2624 1589 1681 1552 2128 3593 3816 3898 3310 3172 3293 3750 3396 4120 4120 3450 3665 3081 2659
0 1 0 0 0 0 0 50 126 40 88 9 0 0 55 37 64 417 621 890 915 914 1061 1705 2703 2874 2885 3148 2770 2643 2987 2408 1650 2195 3012 2672 2623 3734 3305 1725 2165 2170 3588 3935 3660 3478 3294 3554 2755
1 12 4 0 0 0 13 46 261 68 0 21 8 2 0 141 140 394 608 738 877 814 939 1468 2459 2765 2980 2744 2896 2788 2672 3008 3382 3169 2426 3422 2612 2294 2235 1443 593 1620 3226 3276 3402 3236 3057 2327 2183
0 10 20 4 0 1 68 63 58 1 0 0 81 8 0 0 121 218 553 709 877 838 1024 1197 2433 2710 2717 2688 2706 2952 2941 2638 2369 2335 2365 2355 3339 3312 3426 3154 2796 2616 2787 2631 2959 2785 2404 2227 1772
0 7 1 2 8 13 55 59 59 4 0 0 4 101 71 108 77 300 425 764 858 818 979 1102 2562 2847 2870 2697 2702 2827 2935 2801 2436 2905 3854 2975 3956 3198 3857 3584 3008 2474 2562 2646 2564 2500 1910 2182 2308
0 0 0 0 13 88 51 116 35 174 0 0 0 149 229 263 134 241 425 787 979 1016 1131 1286 2305 2708 2985 2840 2890 2999 3138 3306 3267 3549 3954 3978 4193 3902 3688 3047 2720 2421 2339 2118 2316 2149 2178 2331 2094
0 0 0 0 0 12 133 69 125 244 75 0 0 0 467 314 246 324 485 903 974 1105 1163 1337 1788 2946 3115 3336 3627 3664 3806 3957 4096 4052 4181 3988 3474 2931 2517 2754 2328 1719 2006 2186 2126 1941 1473 876 967
0 0 0 0 0 1 53 14 7 121 2 42 73 324 76 446 277 420 454 925 1129 1143 1256 1546 1832 2706 3293 3769 4312 4397 4277 4211 4252 4142 3629 3110 2780 2301 2345 2070 1685 1807 1615 1436 932 677 294 73 108

GFSSGP_con_sbcape_180.txt.gz
CAPE
1350 1195 1348 1651 198 212 1 45 50 231 259 90 156 59 91 21 12 3 16 44 69 99 835 1499 1977 1698 1640 1702 1586 1737 1585 1550 1584 2012 1923 1733 1707 1922 1681 1601 1654 1625 1702 1470 1453 1680 1672 1588 1551
1183 1448 1880 1447 254 115 40 8 98 172 82 37 54 48 26 51 35 79 22 60 43 38 780 1518 1900 1844 1199 1457 1389 1920 1664 1757 1712 1564 1363 1238 1460 1724 1789 1946 1465 1319 1323 1310 1552 1682 1758 1707 1683
859 1290 803 960 142 57 190 208 388 145 212 198 91 18 24 52 54 55 10 50 28 101 650 765 1573 1559 1421 1485 1613 1660 1743 1680 1104 1072 1740 985 1087 770 880 846 1022 1261 1670 1692 1638 1491 1369 1310 1306
236 1039 956 987 105 52 111 470 602 338 254 34 8 3 50 58 58 32 43 23 11 246 780 1850 1749 1629 1416 1443 1591 1249 1023 643 658 1584 1341 1172 1814 1809 1456 1392 1660 1645 1478 1377 1276 1171 1265 1335 1413
97 1125 908 627 187 225 382 463 358 188 106 62 40 6 17 54 23 37 30 9 34 88 526 1358 1981 1503 1582 1452 1308 609 1193 1552 1555 1493 1487 1545 1759 1630 1552 1645 1609 1477 1286 1204 1168 1216 1226 1237 1421
484 424 537 61 352 537 509 408 345 140 19 16 1 2 43 32 14 37 24 25 56 367 683 1152 1440 1487 1445 1448 1106 754 1694 1696 1714 1758 1828 1543 1328 1642 1571 1367 1259 1237 1268 1280 1287 1300 1274 1364 1578
772 65 148 173 489 490 502 352 220 167 97 21 0 6 53 22 13 32 38 62 220 360 535 792 972 1117 1420 1453 769 619 1670 1668 1496 1260 1526 1521 1454 1367 1318 1280 1276 1215 1190 1197 1316 1243 1316 1553 1857
204 8 61 230 408 433 499 448 314 146 70 34 0 4 54 2 5 16 34 114 148 223 436 528 549 758 924 1242 1325 924 887 1075 1189 1026 1429 1573 1645 1439 1444 1772 1854 1568 1404 1321 1199 1303 1643 1816 1915
110 22 10 246 287 346 425 424 361 209 76 146 35 0 0 13 0 8 33 92 55 92 219 357 503 568 543 967 1443 1861 1624 1434 1006 843 1145 1522 1238 966 1248 1532 1685 1547 1105 1102 1038 1396 757 339 661
21 9 6 191 424 472 495 470 417 316 171 73 0 0 0 0 0 0 7 16 14 62 168 171 215 514 370 841 521 393 727 711 497 356 523 376 491 779 1099 1415 1746 1633 1182 1811 1836 1530 1242 285 81
0 0 2 370 450 542 516 482 478 295 197 56 0 1 0 0 0 0 0 3 33 126 220 250 354 201 100 361 357 360 366 483 292 48 3 369 1038 846 1093 522 5 18 846 1429 1636 832 5 62 38
0 0 1 15 329 422 492 487 410 414 206 62 0 0 0 0 0 0 0 0 18 23 46 211 271 139 129 178 90 251 350 104 97 472 434 990 652 850 630 142 358 584 818 639 765 272 7 43 119
0 0 23 376 671 617 681 656 558 364 201 85 0 0 0 0 0 0 0 0 1 0 1 4 21 56 1 0 0 29 129 146 44 153 793 1062 934 814 883 1048 671 252 808 360 631 204 51 13 24
0 0 15 353 617 719 645 572 501 414 248 99 0 0 0 0 0 0 0 0 0 0 0 0 95 32 0 0 0 0 56 176 353 345 942 1220 1271 1244 1315 450 0 0 777 631 644 440 264 521 654
0 0 9 282 378 570 634 530 527 438 366 216 51 16 0 0 0 0 0 0 0 0 0 0 114 103 192 202 35 121 277 493 213 852 1224 987 1017 1202 1419 322 0 0 55 537 653 634 1226 1412 944
0 0 0 0 362 458 321 625 557 420 349 423 336 233 141 30 0 0 0 0 0 0 0 0 286 14 16 652 325 122 57 196 57 155 434 754 985 992 955 566 93 0 0 48 869 848 1096 623 397
0 0 0 0 66 373 351 687 596 433 308 242 185 312 216 131 40 1 0 0 0 0 0 16 24 0 0 181 68 8 366 295 19 14 60 377 742 1165 948 857 803 271 70 890 850 1082 908 901 353
0 0 0 0 52 225 414 481 708 529 364 278 230 282 234 130 74 0 0 0 0 0 0 2 0 0 0 0 0 96 268 171 157 98 20 253 443 591 878 1363 1277 1418 1161 967 563 666 1018 1012 983
20 0 0 0 63 97 80 558 700 519 497 403 236 210 203 143 82 9 4 0 0 0 0 0 0 0 0 0 0 0 0 0 0 8 135 76 34 636 1800 1628 1167 1523 1306 1296 900 1179 963 715 966
0 0 0 0 13 4 333 537 618 597 586 459 355 281 185 108 63 27 13 0 0 0 0 0 0 0 0 0 0 1 2 17 10 253 297 275 400 529 1307 1689 1515 1872 1761 1605 1571 1037 1065 1150 849
0 0 1 1 0 0 168 212 402 536 469 400 378 286 227 169 52 74 47 0 0 0 0 0 0 0 0 0 0 19 316 215 105 19 2 1 80 473 931 1479 1506 1842 1818 1820 1747 1432 1169 1318 1062
0 0 0 0 0 0 3 1 53 202 246 328 373 318 240 151 112 118 103 1 0 0 0 0 0 0 0 7 88 167 206 467 85 17 0 116 463 654 592 1637 583 505 1377 1158 1788 1881 1541 1352 1226
0 0 0 8 6 0 0 7 0 0 43 100 218 256 168 172 118 164 84 64 21 4 0 21 0 2 135 0 124 119 63 31 109 285 540 264 449 1073 1383 1043 0 0 309 45 1189 1492 1641 947 1176
4 0 0 0 0 0 4 23 0 0 0 33 54 215 100 89 197 189 136 83 81 53 19 84 75 93 129 391 111 135 285 443 722 706 498 935 841 1241 1462 0 0 1 0 59 833 1443 1219 1048 884
1 0 0 0 0 0 0 0 0 0 0 0 0 63 56 93 290 295 211 147 106 97 100 156 135 117 212 295 329 335 157 110 189 319 476 498 819 1055 1452 15 173 392 252 658 1424 964 768 841 724
0 0 0 0 0 0 0 0 0 0 0 0 0 0 0 122 103 180 200 250 245 224 213 293 172 134 162 321 617 449 512 729 1093 1482 1381 1157 995 1253 1248 1076 1090 880 884 1170 878 876 593 583 547
0 0 0 0 0 0 0 0 0 0 0 0 0 0 0 134 156 217 174 158 233 249 351 486 501 295 427 582 701 1305 1042 1021 1125 1230 1306 1143 844 952 1598 1383 1315 1225 1166 960 750 160 0 0 0
0 0 0 0 0 0 0 0 0 0 0 0 0 0 0 12 98 215 217 200 226 237 215 514 791 1009 1080 1309 1304 1250 1633 1617 1470 1418 1294 1917 1993 1903 1479 1192 988 1012 332 42 0 0 0 0 0
0 0 0 0 0 0 0 0 0 0 0 0 0 0 0 0 1 65 133 138 231 238 209 242 747 1050 1280 1453 1541 1570 1410 1656 1695 1565 1532 1689 1734 1420 1307 802 220 0 0 0 0 0 0 0 0
0 0 0 0 0 0 0 0 0 0 0 0 0 0 0 0 0 2 41 61 148 130 82 221 792 1056 1233 1419 1463 1558 1517 1595 1741 1833 2015 2083 1505 1228 569 3 0 0 0 0 0 0 0 0 0

GFSSGP_con_sbcape_183.txt.gz
CAPE
1259 855 891 1237 134 1 0 63 89 162 130 71 56 16 30 39 16 0 29 54 162 309 537 929 1769 1644 1408 1657 1637 1676 1234 1809 1389 1812 1600 1956 2136 1997 2078 1917 1866 2051 1689 1583 1892 1833 1744 1644 1604
1190 1292 1741 1085 113 24 6 8 135 124 59 49 35 30 29 51 42 44 70 93 131 290 740 1182 1927 1806 1495 1691 1587 1771 1748 1623 1437 1281 1484 2071 2084 2038 1625 1354 1444 1387 1276 1441 1596 1662 1583 1557 1503
1052 1230 747 784 44 65 139 96 226 83 32 108 30 23 27 62 43 37 35 92 115 419 883 1145 1214 1372 1504 1686 1675 1648 1626 929 1313 1407 769 841 1199 1199 1376 1417 1123 1320 1662 1741 1637 1486 1370 1308 1367
747 621 727 620 129 18 194 216 106 150 30 7 0 17 59 113 48 35 81 67 172 503 723 1468 1824 1438 1440 1700 1675 1498 1081 659 1723 1226 1292 1890 1425 1257 1112 1465 1966 1716 1543 1420 1322 1338 1413 1470 1513
73 974 619 55 153 209 350 344 277 143 47 24 24 21 42 69 34 56 68 44 186 480 578 1228 1631 1555 1554 1181 504 483 982 1319 1811 1033 1543 2048 1902 1588 1614 1591 1593 1538 1412 1298 1288 1314 1357 1387 1597
379 557 175 186 317 456 403 308 156 58 38 1 1 1 33 45 5 19 14 61 163 482 480 1071 1462 1540 1392 1253 677 1606 1655 1523 1670 1878 1585 1488 1773 1744 1771 1557 1425 1328 1340 1375 1375 1358 1389 1453 1604
613 50 125 363 494 464 385 227 115 9 14 9 0 3 59 49 18 3 34 65 309 304 602 793 1187 1098 1503 1030 580 1710 1683 1667 1467 1559 1591 1408 1359 1489 1507 1370 1329 1253 1169 1180 1121 1298 1364 1662 1970
599 0 219 424 410 429 305 240 138 45 12 24 11 1 30 72 43 5 66 65 136 294 591 581 682 776 832 549 560 977 1653 1486 1221 1209 1494 1768 1681 1455 1463 1507 1609 1568 1537 1462 1347 1232 1688 1741 942
25 1 13 242 335 359 360 238 175 72 5 45 20 1 8 62 41 87 110 97 155 290 346 430 510 541 567 975 1323 1289 1221 1109 914 992 1269 1566 1325 979 1287 1546 1853 1675 1621 1122 1228 1535 1895 1544 417
0 0 1 330 327 451 392 324 217 177 115 0 6 33 40 36 77 84 191 161 134 189 178 233 328 397 404 1064 794 496 768 757 482 496 366 473 408 536 1169 1600 1926 1706 1679 2109 2342 2531 2327 1877 203
0 0 44 408 417 444 398 401 360 236 189 42 0 13 36 43 47 22 22 100 65 50 230 202 268 322 143 360 109 238 259 441 232 109 23 233 695 870 841 555 163 6 127 1075 1359 1406 642 0 11
0 0 293 425 540 473 451 369 281 342 153 69 0 2 15 18 0 0 10 0 26 119 211 256 275 129 87 182 76 152 251 68 234 425 158 477 678 565 636 243 253 600 737 556 305 533 270 5 25
0 235 313 596 501 424 490 471 396 179 31 0 0 0 0 0 0 0 0 0 5 40 36 119 78 36 12 36 0 4 41 47 30 60 297 776 645 530 666 873 418 20 229 328 297 556 358 85 99
0 318 533 442 699 675 585 525 429 195 35 0 0 0 0 0 0 0 0 0 0 0 0 0 21 13 0 0 0 0 28 97 161 270 283 914 882 883 949 545 17 0 11 575 667 608 473 459 720
2 141 356 659 678 658 455 425 471 274 95 2 0 0 0 0 0 0 0 0 0 0 0 0 37 12 0 0 0 0 90 221 172 341 672 1102 884 713 966 825 143 0 0 3 372 487 591 838 387
0 0 69 158 420 647 210 277 497 341 219 78 17 3 0 0 0 0 0 0 0 0 0 0 130 15 0 52 19 50 23 80 18 44 142 230 646 707 956 646 425 119 0 0 543 609 843 467 306
0 0 0 0 279 514 331 427 582 448 389 312 161 93 23 0 0 0 0 0 0 0 0 0 31 0 0 15 0 0 2 97 42 5 0 23 514 797 705 845 1046 987 449 731 800 739 618 767 672
0 0 0 0 34 359 479 503 566 441 383 405 346 256 277 180 18 0 0 0 0 0 0 0 0 0 0 0 0 0 24 31 6 4 0 0 145 540 582 1090 1270 1215 1023 864 511 565 760 966 739
0 0 2 0 16 64 287 654 569 456 317 279 142 215 198 126 80 4 0 0 0 0 0 0 0 0 0 0 0 0 0 0 0 0 0 235 29 7 632 1381 1109 1317 1186 1222 870 811 684 578 697
0 0 0 0 0 28 371 636 645 495 343 233 202 172 144 67 18 2 0 0 0 0 0 0 0 0 0 0 0 0 0 0 0 8 103 55 93 133 256 963 1171 1224 1424 1197 1263 1053 911 989 838
0 0 0 0 0 7 295 306 636 566 485 356 274 144 75 54 0 0 0 0 0 0 0 0 0 0 0 0 0 0 0 23 28 41 24 0 0 41 304 617 1351 1543 1375 1370 1382 1390 1110 1133 911
0 0 0 0 0 2 27 3 166 401 420 379 313 241 84 22 1 0 0 0 0 0 0 0 0 0 0 0 0 0 0 12 20 21 0 24 246 196 636 578 1266 129 1027 623 443 1586 1351 1026 921
0 0 0 0 0 0 0 0 0 112 289 279 332 266 163 53 6 0 9 0 0 0 0 0 0 0 0 0 0 0 0 17 33 47 92 148 267 810 1091 1049 47 0 118 28 391 1015 834 776 846
0 0 0 0 0 0 0 0 0 3 60 148 209 258 171 100 36 11 12 17 0 0 0 0 0 0 0 0 0 0 17 24 75 257 430 440 448 627 1337 736 10 6 2 195 875 1011 758 679 516
0 0 0 0 0 0 0 0 0 0 0 21 70 163 214 119 65 36 48 36 6 0 0 0 0 0 0 1 0 15 23 38 139 287 368 293 250 590 1163 639 209 492 364 915 934 636 552 428 202
0 0 0 0 0 0 0 0 1 0 0 0 2 29 114 104 20 65 96 74 41 24 7 0 0 0 0 1 115 104 35 44 66 90 208 598 1005 799 1065 906 881 931 1124 773 372 48 12 0 0
0 0 0 0 0 0 0 0 0 0 0 0 0 3 24 11 20 83 102 88 53 48 36 12 11 0 0 56 137 153 212 265 393 624 965 1217 1068 878 993 1294 1114 920 698 112 0 0 0 0 0
0 0 0 0 0 0 0 0 0 0 0 0 0 0 0 0 9 105 152 148 117 89 65 41 64 45 26 58 131 314 474 397 543 753 958 1047 1130 1579 1410 899 241 0 0 0 0 0 0 0 0
0 0 0 0 0 0 0 0 0 0 0 0 0 0 0 0 1 31 85 108 137 136 114 131 163 196 148 133 292 405 806 1127 1123 1193 1273 1250 1595 1237 806 47 0 0 0 0 0 0 0 0 0
0 0 0 0 0 0 0 0 0 0 0 0 0 0 0 0 0 0 41 38 37 75 106 143 362 484 597 613 809 1019 968 1229 1377 1410 1318 1301 1365 692 22 0 0 0 0 0 0 0 0 0 0

GFSSGP_con_sbcape_186.txt.gz
CAPE
1010 468 341 942 19 0 0 41 105 68 82 90 49 15 39 37 19 0 6 44 221 285 457 1096 1483 1751 1651 1672 1201 1313 1473 1121 1293 1703 2000 2145 2054 2127 1723 1887 2212 1777 1663 1878 1862 1787 1576 1593 1648
1013 562 1563 902 15 1 8 40 52 56 75 49 46 43 57 80 47 39 43 120 195 331 472 867 1672 1789 1649 1566 1547 1799 1847 1772 1327 1966 1983 1641 1352 1374 1479 1564 1482 1227 1400 1528 1632 1587 1485 1503 1399
1174 1314 626 395 11 32 57 27 76 37 54 97 46 28 42 76 33 41 45 94 184 553 756 895 1392 1489 1737 1618 1738 1660 985 1346 925 992 1559 1666 1728 1891 1469 1227 1294 1667 1800 1629 1471 1424 1424 1369 1535
1179 545 609 113 107 24 108 104 102 62 30 16 23 50 86 110 18 48 94 105 342 631 724 1510 1439 1407 1539 1726 1810 1381 669 1883 1076 1205 1345 995 931 886 1053 1936 1971 1683 1570 1477 1461 1513 1525 1602 1675
129 848 224 81 103 241 215 121 117 88 37 28 28 38 60 101 58 83 91 165 395 368 674 1060 1841 1422 1425 1213 753 410 1011 1933 986 1548 2014 2035 1569 1495 1624 1653 1666 1625 1441 1352 1390 1364 1428 1510 1581
385 434 69 107 297 349 270 150 66 48 19 7 7 7 84 73 38 59 90 182 369 357 588 944 1649 1528 1308 407 1318 1493 1534 1573 1767 1545 1463 1885 1807 1796 1717 1494 1335 1361 1342 1304 1255 1356 1353 1459 1525
498 42 81 205 417 320 323 161 51 14 0 1 0 16 89 31 5 31 75 191 304 343 605 799 1085 1250 1443 584 1589 1755 1818 1690 1725 1687 1551 1427 1453 1507 1410 1284 1265 1171 1153 1128 1110 1133 1346 1679 1767
528 0 325 385 434 355 249 127 2 0 0 0 0 0 46 44 5 33 92 157 229 357 490 703 574 706 445 309 928 1871 1639 1417 1215 1498 1640 1866 1699 1522 1503 1559 1445 1330 1537 1354 1275 1276 1358 1772 862
83 0 237 225 326 327 222 159 93 17 4 11 15 12 51 45 56 101 104 88 223 304 270 350 408 547 721 963 781 916 1043 946 987 1164 1436 1408 1251 1058 1110 1391 1839 1967 1949 1814 1344 1628 2184 2269 986
0 0 1 175 279 366 265 188 100 48 48 25 35 75 47 17 145 60 82 108 143 241 199 232 298 282 485 1193 717 514 813 655 393 357 232 498 326 311 1166 1711 2003 1602 1072 661 1817 2404 2037 134 241
0 0 0 281 366 404 266 284 233 54 46 0 6 64 42 19 77 27 158 146 177 176 267 192 173 241 150 290 29 173 197 320 236 159 9 76 704 816 774 645 366 219 724 962 1106 1019 984 207 88
0 0 318 587 452 392 385 304 192 145 32 4 0 6 6 33 58 37 56 50 71 110 262 164 192 62 21 90 84 99 224 128 119 243 391 419 725 257 534 549 608 960 1134 966 65 529 605 289 165
0 195 444 433 442 407 429 378 241 13 0 0 0 1 7 0 25 4 7 0 15 90 155 195 115 71 31 81 8 53 54 29 35 77 166 574 748 449 547 837 384 0 0 493 631 850 693 653 357
222 355 456 455 561 513 375 349 154 0 3 0 0 0 0 0 1 0 0 0 6 36 22 41 90 24 0 0 0 0 10 73 132 237 283 392 753 705 886 1022 339 10 1 419 661 1020 1026 929 1188
95 598 680 624 619 563 257 222 259 34 0 1 0 0 0 0 0 0 0 0 0 0 0 0 0 0 0 0 0 0 15 116 112 111 449 715 839 619 640 942 497 231 0 0 360 964 876 1013 656
6 18 593 448 611 567 93 32 344 107 1 0 0 0 0 0 0 0 0 0 0 0 0 0 15 6 0 0 0 0 21 18 59 0 19 34 80 627 806 850 782 704 197 92 827 1071 1028 848 826
0 3 0 164 375 481 381 185 431 203 61 18 7 0 0 0 0 0 0 0 0 0 0 0 0 8 0 0 0 0 0 28 34 0 4 23 247 755 835 1021 1186 1303 1010 1019 865 825 712 1013 1130
0 0 0 16 61 510 430 271 487 306 185 88 55 22 0 0 0 0 0 0 0 0 0 0 0 0 0 0 0 0 0 0 0 0 0 1 80 245 363 812 1319 1246 1201 1192 1009 836 959 1050 870
0 0 0 0 20 309 301 379 523 405 267 221 214 122 63 0 0 0 0 0 0 0 0 0 0 0 0 0 0 0 0 0 0 0 0 158 143 75 60 1142 1350 1246 1522 1375 1237 1075 753 954 993
0 0 0 0 0 21 109 415 526 441 325 223 186 81 131 35 0 0 0 0 0 0 0 0 0 0 0 0 0 0 0 0 0 3 76 84 48 75 325 511 1062 1318 1399 1304 1449 1363 1286 1177 1059
0 0 0 0 0 41 252 204 561 470 362 205 134 82 56 23 0 0 0 0 0 0 0 0 0 0 0 0 0 0 0 1 13 32 51 27 18 113 453 574 933 1428 1419 1383 940 1465 1409 1549 1344
0 0 0 0 0 0 5 1 153 440 403 278 147 96 45 3 0 0 0 0 0 0 0 0 0 0 0 0 0 0 0 0 0 14 15 62 208 323 781 674 1104 121 743 710 388 1322 1332 1165 1153
0 0 0 0 0 0 0 1 0 143 313 281 195 138 76 0 0 0 0 0 0 0 0 0 0 0 0 0 0 0 0 0 0 32 54 65 109 514 914 1168 132 10 247 262 450 1190 956 961 999
0 0 0 0 0 0 0 0 0 98 117 134 156 148 117 18 0 0 0 0 0 0 0 0 0 0 0 0 0 0 0 0 14 39 75 212 319 392 665 1050 259 142 286 474 1183 805 678 646 423
0 0 0 0 0 0 0 0 0 0 0 31 60 53 149 102 5 0 0 0 0 0 0 0 0 0 0 0 0 5 17 12 18 45 101 247 253 310 842 1052 568 751 613 1007 660 477 206 3 0
0 0 0 0 0 0 0 0 0 0 0 0 0 0 84 106 36 2 0 0 0 0 0 0 0 0 0 0 0 15 29 23 31 55 91 139 352 846 913 1102 1026 1047 907 283 4 0 0 0 0
0 0 0 0 0 0 0 0 0 0 0 0 0 0 13 120 50 14 0 0 0 0 0 0 0 0 0 0 14 30 26 25 43 84 243 542 864 1034 1061 1116 889 560 0 0 0 0 0 0 0
0 0 0 0 0 0 0 0 0 0 0 0 0 0 0 25 20 0 0 0 0 0 0 0 0 0 0 0 18 39 59 104 155 281 550 762 940 1211 1269 386 16 0 0 0 0 0 0 0 0
0 0 0 0 0 0 0 0 0 0 0 0 0 0 0 0 0 0 0 0 0 0 0 0 0 0 0 14 26 56 164 218 296 495 699 986 1249 1319 397 3 0 0 0 0 0 0 0 0 0
0 0 0 0 0 0 0 0 0 0 0 0 0 0 0 0 0 0 0 0 0 0 0 0 0 0 10 16 28 52 305 718 790 871 1046 1200 1322 311 0 0 0 0 0 0 0 0 0 0 0

GFSSGP_con_sbcape_192.txt.gz
CAPE
757 876 826 1278 747 305 312 348 47 88 98 47 15 60 74 51 202 58 201 173 303 357 491 775 1622 1620 1065 1301 1722 1556 1546 1658 1625 1808 1661 1892 1643 1806 1696 1711 1917 1827 1836 1497 1381 1438 1437 1494 1297
1209 807 1777 1886 377 71 248 228 194 80 91 79 54 85 86 95 14 84 180 180 294 332 627 925 1476 1795 1223 1534 1014 1321 1203 1561 1820 1724 1821 1835 1936 1853 1243 1296 1642 1627 1694 1372 1322 1291 1191 1194 1272
779 1572 1864 646 121 94 115 218 269 203 108 102 158 84 139 87 45 97 200 301 312 308 646 888 1459 1378 1598 1604 1366 1140 1183 1459 1559 1741 1588 1765 1471 1389 1389 1723 1715 1535 1431 1452 1440 1433 1275 1325 1215
1816 1851 1711 443 144 239 177 305 300 271 196 116 112 118 74 117 9 91 174 313 309 408 669 911 1498 1517 1476 933 807 1862 742 890 878 968 1094 1086 1149 1538 1819 1716 1709 1592 1532 1488 1455 1495 1437 1254 1285
1510 1521 448 160 208 390 246 361 319 370 294 88 107 102 123 99 52 141 203 207 238 213 373 1051 1264 1427 1313 868 787 1827 956 1336 1905 1871 1542 1640 1715 1593 1804 1696 1513 1383 1319 1305 1403 1446 1385 1400 1346
1224 910 192 125 228 594 536 401 364 176 334 145 135 70 71 73 81 100 238 205 129 406 1076 741 1236 590 356 569 1464 1613 1215 1395 1492 1763 1945 1865 1875 1475 1259 1106 948 973 994 1001 1035 1120 1243 1506 1481
805 504 173 110 222 248 505 521 211 286 300 269 153 181 135 50 47 75 119 184 621 612 1018 965 840 231 1200 1453 1670 1984 1909 1808 1482 1185 1204 1298 1144 1034 1093 1217 1127 1135 1279 1353 1343 1361 1495 1656 1847
624 501 130 80 82 314 621 494 530 451 277 91 113 148 76 54 44 148 146 374 439 549 704 853 1325 400 690 1103 1832 1440 1063 1174 1349 1408 1469 1642 1637 1579 1692 1957 1780 1925 2074 2116 2060 1757 1880 2211 2268
355 234 102 104 84 511 731 477 361 254 154 113 97 89 67 18 19 31 247 285 265 448 664 673 1109 363 598 1107 936 755 787 803 1013 1415 1074 1715 1570 1546 1633 1818 2085 2100 1792 1571 1499 2333 2350 2366 2463
160 21 25 102 275 504 676 445 374 303 272 193 124 74 23 22 29 48 85 112 198 332 461 552 277 155 52 31 412 909 954 1463 1609 1638 2094 1636 1967 1940 1752 1830 1818 1667 1711 1972 1764 1037 1597 1827 994
17 18 27 282 335 194 602 490 375 393 364 301 258 90 10 35 49 17 75 136 156 266 310 334 389 425 41 79 368 996 964 1271 1657 1894 2039 2053 2164 2044 1810 1917 1820 1766 1695 1470 1652 1641 1703 1584 1751
69 236 0 204 478 426 531 598 497 418 593 255 305 99 2 35 18 29 16 83 94 274 300 184 170 155 143 563 805 1092 1040 1209 1106 1558 2113 2238 1810 1823 2217 1841 2239 1754 1763 2145 2160 1916 2177 2045 1831
103 511 628 661 672 635 624 431 662 550 384 340 307 105 38 80 82 77 41 122 134 275 274 38 55 301 924 1472 1275 1300 1107 1012 1371 1514 1991 1898 1384 1746 2017 2043 2149 1982 1917 1558 1941 2218 2217 2182 1953
648 743 945 968 1003 855 452 639 525 359 408 387 176 162 119 195 212 265 157 185 86 275 172 24 98 1075 1359 1423 1508 1333 1306 1551 1454 1482 1815 1928 2286 1949 1962 2102 1784 1879 2127 2205 2128 2561 2318 2116 1678
931 886 1005 1042 1015 923 630 655 227 340 213 190 145 190 214 354 217 253 190 144 112 252 57 31 886 1148 1311 1439 1378 1208 1368 1216 1303 1190 1575 1760 2166 2180 2839 2139 2058 2198 2263 1775 1832 1812 1358 1283 1212
706 552 560 1059 1037 934 456 525 353 352 276 254 144 137 287 226 252 283 333 225 204 208 109 413 682 929 1167 815 736 1087 1346 1228 1227 1108 1074 1613 1741 2185 2044 1833 2165 3096 2207 2072 1541 1592 1687 1337 1088
424 159 91 535 953 973 718 564 448 407 347 212 203 105 127 269 297 428 379 152 109 271 248 709 801 963 1048 1204 1025 1341 1583 1185 1179 1160 996 1645 1727 1920 1938 1668 2299 2927 2248 2257 2218 2193 2442 2165 2208
210 36 1 45 723 878 790 503 711 498 458 436 164 269 310 379 480 445 371 89 74 283 266 536 859 1164 1415 1228 1455 1248 1205 1065 908 902 928 1409 1744 1831 1815 1802 2670 2626 2256 2211 2426 2743 2865 2584 2598
35 179 97 60 98 647 651 555 882 665 399 414 597 534 478 504 554 464 434 27 32 108 294 585 979 1102 1462 1083 773 918 870 829 787 677 829 1290 1530 1733 1988 2009 2431 2526 2605 2929 2992 2632 2526 2679 2716
1 84 128 73 115 388 280 395 521 1009 550 256 331 485 593 606 581 563 562 274 46 39 304 505 715 1038 1468 1018 980 788 672 335 288 422 850 1252 1466 1737 1505 3046 2404 3129 2655 3139 2960 3274 2815 3037 2666
15 54 34 77 257 381 257 272 547 1026 786 187 161 243 406 551 625 624 507 427 245 97 116 339 475 438 931 826 1065 1267 1014 1005 271 220 392 1059 1211 1448 2054 2739 3130 3182 2936 2619 2879 2983 2941 2657 2658
31 5 0 56 173 233 369 231 709 1093 1032 402 209 80 121 331 549 530 476 510 431 267 18 156 357 283 302 704 539 768 754 471 196 577 593 890 1329 1530 1819 2433 2668 2896 2699 2923 2660 2922 3005 2837 1889
12 0 0 0 67 126 194 255 172 825 1209 826 528 249 33 88 408 527 477 388 320 218 25 16 250 379 248 390 583 423 946 597 646 697 1201 1553 1856 1719 1712 2018 2511 2854 2346 2780 3142 3053 2773 2060 1887
3 2 4 6 31 206 79 292 199 547 725 1083 699 600 190 12 179 454 614 568 443 264 256 332 674 1036 1009 603 642 842 933 1136 920 1050 1192 1133 1182 1308 1741 2222 2643 2792 2832 3163 2983 2801 2129 1821 1193
0 31 57 52 98 265 145 176 313 263 379 576 920 603 507 71 18 255 475 621 608 554 519 560 802 1161 1088 945 494 684 995 1480 1607 1785 1362 1518 1273 1308 1707 2527 2900 2898 3054 2818 2700 1690 1220 832 476
0 8 64 144 280 293 140 81 269 101 52 62 439 619 574 311 0 96 359 517 554 573 654 678 819 1263 1156 894 700 921 1229 1275 1315 1470 1439 1445 1414 1473 2006 2610 2669 2751 2709 2245 1408 1015 519 251 9
0 41 39 53 166 188 153 94 85 56 126 13 351 624 506 384 54 37 197 415 554 636 711 752 900 1267 1356 1085 1125 1264 1587 1669 1367 1475 1706 1702 1909 1783 2478 2704 2585 2501 1983 1117 777 566 162 0 0
0 0 27 31 146 147 169 137 152 170 75 211 616 703 471 378 109 82 92 326 478 583 687 787 859 1194 1377 1319 1291 1365 1562 1786 1900 2001 2085 1988 1989 2490 2435 2805 2379 2097 1257 443 360 135 0 0 0
0 0 7 16 107 246 248 188 141 101 12 311 757 643 463 382 72 97 48 203 424 488 580 703 826 1091 1413 1492 1495 1595 1660 1819 1996 1982 2070 2144 2447 2684 3006 2784 2278 1493 582 166 135 3 0 0 0
0 0 0 17 96 117 245 233 38 0 0 368 745 275 408 177 22 35 78 225 441 486 570 707 810 1069 1369 1602 1787 1757 1780 1754 1819 2136 2109 2345 2603 2779 2953 2377 1819 850 209 75 5 0 0 0 0

GFSSGP_con_sbcape_195.txt.gz
CAPE
447 659 871 1101 1116 638 274 331 312 114 66 15 5 56 92 77 156 393 162 155 116 214 556 933 1419 1420 1583 1446 1522 1611 1577 1700 1745 1170 1507 1575 1722 1750 1592 1956 1873 1914 1653 1519 1534 1482 1624 1441 1447
1260 1250 1570 2152 530 158 337 45 295 122 62 60 32 53 104 90 34 136 147 201 174 230 466 912 1351 947 1115 989 1192 1189 1479 1519 1594 1624 1573 1710 1817 1415 1446 1678 1741 1747 1450 1376 1356 1277 1184 1263 1389
1722 1246 2152 780 74 86 252 255 62 142 85 48 133 119 131 9 81 64 177 277 299 297 519 940 1296 1463 1341 1231 1321 1452 1527 1640 1621 1569 1591 1402 1412 1499 1802 1745 1515 1443 1508 1488 1473 1369 1254 1251 1223
1427 2364 1964 955 54 138 84 264 125 190 188 214 197 142 152 77 37 122 142 147 190 230 330 835 1222 1423 1099 739 1676 590 908 883 1010 1144 1181 1145 1662 1475 1695 1766 1735 1590 1498 1475 1501 1465 1343 1157 1201
1944 1628 744 119 51 53 162 214 158 251 301 87 106 147 67 83 46 115 159 139 240 361 567 601 1399 1255 844 962 1584 847 1683 1941 1673 1269 1316 1591 1562 1744 1713 1525 1354 1321 1266 1266 1328 1432 1388 1418 1505
1294 722 397 70 49 82 106 204 110 209 155 413 103 142 145 33 90 146 169 129 48 348 1050 661 963 419 287 1262 1510 869 1421 1691 1822 1824 1797 1829 1517 1204 1082 960 821 881 989 995 1002 1110 1207 1482 1617
932 279 111 60 73 97 207 129 178 227 171 287 73 91 38 45 35 149 182 489 224 700 637 762 10 500 1156 1400 1683 1957 1921 1248 1001 1088 1107 1100 956 991 1014 1104 1171 1462 1675 1561 1393 1572 1703 1853 2012
269 287 165 95 144 8 71 285 379 237 220 265 521 544 63 45 24 64 158 170 377 762 713 805 278 851 952 1677 1556 1210 1012 1116 1377 1424 1524 1715 1627 1785 1899 1989 1931 1954 2033 2024 2128 2231 2155 2321 2576
263 334 78 65 180 25 67 181 220 548 353 305 308 291 251 6 33 9 209 60 123 620 590 886 699 481 1075 802 584 613 797 1012 1264 1454 1448 1612 1941 2064 2372 2134 1805 1920 1837 1904 1415 2223 2476 2540 2849
216 143 51 53 50 72 84 225 299 498 507 472 382 228 26 0 1 20 223 53 242 302 261 743 45 25 346 48 750 877 1143 1672 1726 2030 2227 2083 1606 1652 1795 1774 2050 2087 2070 2319 2008 1826 2280 2561 1819
125 35 76 123 106 136 124 112 194 187 525 544 481 229 53 20 4 19 13 47 168 246 330 192 130 6 0 94 541 1393 1563 1761 1640 2030 2103 1830 2171 2059 2152 1484 2472 1986 2218 2601 2276 1956 1640 1907 1193
36 2 54 44 38 42 175 143 206 335 429 446 506 225 72 4 17 0 28 132 162 216 292 162 178 132 61 141 510 656 1379 1143 1352 1575 2286 2482 2341 1396 1898 1393 1649 2106 2096 1645 2985 2581 2649 2239 2104
67 32 50 89 149 55 47 76 149 453 593 470 510 203 81 0 0 2 16 177 126 252 260 51 57 206 793 1326 1170 1865 1783 1702 1092 2234 1816 1635 1547 1879 1261 1781 1379 2399 2171 1467 2333 2892 1839 1658 1655
16 77 105 215 252 326 158 170 325 649 480 656 521 262 103 20 0 114 4 150 168 315 70 10 45 941 1291 1820 1458 1319 2386 1378 1024 1189 1686 2001 2053 2389 2207 1300 1113 1079 1411 1746 1844 2467 1851 1795 1165
197 85 150 220 437 528 470 411 481 534 515 594 506 379 181 157 61 177 108 180 167 315 9 0 165 1043 1493 1712 1599 1497 1261 1009 946 1201 1621 1765 2037 2020 3526 2231 1546 1541 1905 1357 1412 1755 1208 818 641
340 228 148 153 385 466 410 339 421 382 553 544 467 459 213 244 447 539 399 141 108 296 11 2 581 1089 1363 1375 1447 1196 1153 903 917 812 1480 1501 1894 2028 3791 2317 1623 2961 3202 2262 1997 2172 2162 2518 2373
297 291 534 286 273 960 431 493 566 490 574 713 530 531 369 439 442 503 505 304 174 425 93 306 950 1020 1226 1292 1118 1520 1891 1291 914 880 997 1650 1834 1893 2623 2064 2297 3080 2374 2286 2346 2328 2955 2660 2625
296 198 123 161 508 250 553 593 933 651 533 621 646 533 537 507 337 430 511 385 0 465 364 652 1016 1276 1495 1309 1424 1341 1406 974 848 808 1216 1495 1681 1795 2435 2701 2664 3577 3203 2868 2888 3262 2908 3239 2363
141 205 226 9 162 175 340 428 1208 986 671 523 687 612 581 580 570 458 507 390 121 297 457 572 1084 1681 1650 1390 1219 1129 1071 878 767 660 754 1232 1417 1749 1827 2151 2489 2095 2508 3211 3260 3157 3285 2717 2750
71 232 216 190 119 61 87 328 431 1205 887 616 434 611 613 623 454 532 782 517 301 272 583 355 934 1563 1777 1192 1456 1002 973 706 594 620 834 1139 1343 1509 1409 2782 2804 3215 2582 2969 3169 3243 2771 3111 3188
58 113 145 178 116 246 89 126 92 918 1085 545 465 416 517 583 583 727 878 648 330 351 506 452 1105 1480 1583 1786 1148 1483 1298 1223 569 437 817 1594 1089 1402 1909 2445 2963 3075 3538 2362 2985 3495 3406 2656 1341
41 44 49 34 118 252 210 364 137 560 1161 813 375 346 405 516 702 825 863 703 517 380 299 605 1256 1521 1259 1562 1894 2412 900 621 383 544 1055 745 1175 1566 1765 2210 2532 2879 2780 3012 3501 3324 3169 2392 1335
11 49 80 34 114 198 313 265 111 712 1064 1017 443 304 281 330 583 805 835 909 838 572 398 356 1708 1681 1509 1734 1767 1130 1193 795 709 686 1720 1611 2151 2088 1826 2065 2557 2652 2816 2931 3543 3105 2839 2314 1258
0 50 84 56 139 159 118 150 201 683 782 1102 745 375 208 162 402 630 788 840 833 776 676 295 1657 2273 1805 1164 1036 1344 1455 1595 1015 1076 1072 1191 1242 1614 2223 2435 2671 2871 3129 3547 3222 2849 2461 2010 1121
0 79 116 119 150 132 121 122 123 82 301 621 936 666 328 50 164 544 757 786 823 851 751 493 1233 1959 1325 882 838 1129 1402 1593 1680 1851 1734 1636 1437 1358 3466 2871 3535 3184 3524 3426 3095 2213 1842 1191 525
0 64 103 194 238 218 253 172 122 46 232 338 854 834 663 144 35 373 685 789 783 679 634 518 1367 2154 1707 1583 2026 2117 2139 1230 1352 2100 1607 1413 1451 1526 2674 2742 2796 2998 2655 2937 2264 1774 1198 707 84
0 57 59 129 99 292 59 348 31 110 39 31 84 949 775 375 0 204 532 826 885 803 747 806 1453 2016 1771 1741 2123 2614 2321 2315 1788 3150 3215 2001 3009 1916 2197 2794 2773 2623 2936 2207 1709 1209 778 100 0
0 8 15 57 185 134 110 219 6 101 88 274 179 818 849 587 3 75 350 659 828 862 935 992 1085 1486 1720 1696 1856 1917 2084 2374 2505 2301 2500 2711 2279 2330 2803 2725 2982 2446 2342 1580 1241 925 310 0 0
0 3 9 77 61 75 88 411 184 228 163 81 328 846 851 640 92 21 251 522 670 755 856 966 1051 1296 1796 2535 2484 2751 2146 2313 2313 2219 2362 2588 2622 2797 3003 3111 2952 2468 1821 1227 909 484 1 0 0
0 0 7 72 129 81 88 241 71 151 46 148 527 950 742 497 122 36 139 377 565 702 803 925 1216 1479 2342 2970 3388 2431 2006 2320 2298 2586 2435 2508 2661 2952 3112 3353 2681 1962 1593 943 745 194 0 0 0

GFSSGP_con_sbcape_198.txt.gz
CAPE
155 4 63 707 208 234 152 180 63 8 99 33 33 109 68 94 171 147 251 101 103 530 721 932 1897 1756 1230 1551 1748 1542 1792 1719 1257 1609 1630 1658 1628 1831 1815 1805 1767 1502 1386 1354 1288 1497 1334 1369 1263
282 358 873 915 320 148 164 63 129 80 11 23 55 89 41 17 62 103 88 292 165 478 805 885 1572 1393 1283 1163 1331 1496 1457 1658 1431 1686 1651 1649 1687 2037 1762 1733 1678 1316 1205 1207 1161 1030 1000 1080 1181
840 1383 377 60 42 162 47 82 113 27 26 62 88 108 40 60 62 130 121 241 469 676 866 1184 1435 1314 1310 1366 1670 1618 1807 1632 1541 1347 1440 1518 1662 1698 1717 1376 1389 1408 1377 1251 1215 1036 1018 955 973
1396 9 596 280 137 266 223 81 123 16 11 43 53 25 64 6 87 90 86 157 239 490 554 1461 1471 1283 837 1249 783 1181 1299 1344 1503 1543 1145 1672 1548 1634 1595 1759 1534 1438 1307 1290 1308 1276 1139 969 999
1187 3 22 12 209 107 160 281 121 177 240 101 200 161 53 23 67 57 116 163 107 400 523 1101 1608 985 1345 1545 714 1689 1769 1397 1350 1001 1509 1568 1662 1755 1642 1356 1210 1134 1027 1003 983 1071 1173 1149 1369
146 86 287 34 101 206 323 352 262 168 80 109 58 42 121 7 34 110 184 142 107 519 739 820 1117 564 1305 1317 631 1567 1792 1844 1596 1605 1708 1625 1457 1243 1117 974 762 670 713 772 809 977 1177 1350 1748
377 166 44 66 98 49 291 274 254 92 138 126 73 62 19 11 30 210 559 600 440 568 638 660 78 507 1331 1342 1696 1603 1226 1134 1241 1285 1268 1246 1120 1014 839 915 858 1202 1555 1589 1552 1665 2035 2300 2174
290 104 22 78 15 13 196 169 227 100 164 88 19 4 0 23 19 118 266 456 495 533 297 57 419 886 1292 1485 1489 1349 1008 814 802 891 1028 1130 1018 1150 1049 1726 2121 1855 1993 2093 2367 2441 2801 2957 3240
160 62 91 147 64 25 191 443 301 248 235 301 442 184 0 0 17 9 131 135 669 848 620 412 661 1166 2103 1413 811 1098 805 1081 1288 1336 851 1443 1950 1477 1314 1796 1946 2029 1901 2055 2059 2457 2725 2447 1323
76 133 39 60 70 50 51 22 60 229 272 204 372 136 0 5 1 0 0 0 406 444 602 314 21 472 1158 0 630 832 960 1376 2124 1848 2689 1649 756 444 1652 1606 2024 2379 2441 2437 866 1583 2344 500 453
18 0 0 36 16 68 76 23 51 173 184 335 348 134 0 25 0 93 9 0 447 242 789 519 5 261 153 579 1168 1824 1836 1562 2561 2439 850 2472 1330 1653 1469 2204 2238 2513 3021 2315 178 1294 1665 321 1325
3 1 47 4 7 9 62 5 264 279 197 412 211 0 0 0 1 48 15 0 60 115 129 12 50 530 859 739 725 1826 1612 350 1330 1522 627 1555 3333 2720 2507 2263 1618 2519 2987 2677 1935 2806 2848 1653 1484
2 75 18 0 22 0 1 127 479 312 224 450 246 47 3 0 10 0 12 54 62 250 245 415 638 1804 1597 2160 2609 524 1895 1225 594 1102 3184 2719 2921 2291 2565 3053 2779 2468 2231 2287 3305 3176 2933 2890 2780
1 10 112 125 3 36 11 0 38 15 108 436 321 167 58 0 13 0 43 79 95 492 234 204 346 1601 2241 2452 2659 2439 1141 2641 1114 1441 2757 3446 3036 799 1117 2550 2778 2692 2743 2657 2370 2994 3612 2552 1530
2 106 3 164 78 34 204 175 481 97 233 242 370 261 29 0 4 47 41 229 195 494 37 136 650 1387 2334 2529 2445 2766 2549 1374 2486 2337 3224 2868 3382 2952 1289 3389 2987 2778 3120 2973 3206 3118 2949 2187 2029
13 116 114 157 117 243 469 531 611 141 290 299 315 275 136 0 0 239 13 244 512 450 305 49 142 1410 1992 2633 3039 2944 880 2972 1942 2403 2603 2979 3309 3599 2815 2979 2968 3633 3817 3053 3006 2829 3171 3125 1973
9 232 239 202 109 24 524 325 139 218 359 352 362 283 210 177 2 193 66 140 276 772 510 343 1470 1495 2079 2568 2469 3228 2929 933 2494 1539 2262 2777 2819 2914 1871 3060 3766 4752 3772 3247 3288 3185 3004 2705 2207
142 193 78 81 118 104 379 198 0 417 423 396 386 358 347 290 372 474 434 146 264 863 669 988 2079 2581 2682 2072 3378 2896 2079 2439 2149 2256 2185 2235 2619 2899 3499 2549 3980 4494 4085 3719 3954 4112 3659 3587 3048
8 14 1 157 232 316 190 813 733 617 414 501 496 408 446 355 353 371 508 428 123 732 643 1393 2432 2956 2471 2194 2185 2526 1751 2192 1468 1923 2031 2010 2147 2571 3449 2814 3741 3747 4046 4328 3974 3305 3315 3662 3460
36 0 3 34 44 189 20 671 1050 830 645 405 426 487 404 408 371 526 485 541 124 941 1102 1377 2170 2781 2814 2661 2853 2859 2906 1496 2302 2181 2130 2021 1926 2239 2489 4019 4006 4412 3999 3708 3448 3814 3277 3611 3372
4 6 6 35 22 177 87 27 1179 1107 833 566 366 391 397 542 578 703 505 497 232 810 1137 1023 2296 2800 2700 2932 3052 3247 3203 2739 1861 1816 1907 2189 1899 2092 2711 3432 4116 4289 4088 3613 3913 4066 3872 2434 2412
0 2 17 36 38 98 260 259 124 1208 1084 718 616 416 350 434 712 891 855 943 721 795 1147 1165 1830 2634 2431 2927 2696 3118 2548 1951 1617 2520 2959 2735 1777 2065 2879 2828 3662 4324 4115 3965 3909 3657 3560 3117 1685
0 0 20 11 17 2 89 197 238 173 1195 808 558 582 380 512 621 760 651 988 601 739 788 1228 1646 2459 2280 2576 3149 2639 2747 2498 2496 2405 3248 2400 3480 3043 2755 2792 3359 4096 3947 4468 4204 3560 3520 2127 1331
0 0 2 40 50 36 23 51 174 215 567 972 576 522 639 420 474 977 942 1000 731 823 779 1014 1702 2059 2218 2272 2456 2943 2768 2429 2959 2600 2957 2645 2688 3061 3765 3231 3578 3615 4243 4251 3876 3477 2758 1832 1369
0 0 28 36 139 11 12 31 307 393 62 208 793 419 397 554 469 1109 944 1191 1018 1092 871 780 1795 1851 1840 2021 1802 2024 2447 3253 3367 3146 2990 3040 3053 3337 4362 4256 4021 4277 4190 3867 3526 2866 2379 1506 857
0 0 33 73 76 28 302 136 323 14 6 5 95 458 278 227 284 620 1097 1224 1289 1236 1171 989 1400 1828 1921 1464 1563 2013 2126 2003 2298 3356 2632 3112 3071 3630 4444 3978 3783 3856 3616 3182 3075 2888 1839 964 477
0 0 0 14 63 100 287 228 116 49 79 134 270 687 394 218 135 545 702 1130 1257 1142 1343 1302 1271 1570 1595 1574 1702 1800 2230 2150 1684 2658 2962 2500 3442 2535 3572 3320 3924 3628 3271 2698 2455 2201 1403 789 93
0 0 0 2 29 87 141 159 128 253 267 178 376 1071 830 445 113 405 692 1049 1109 1159 1292 1282 1377 1447 1881 2027 2345 2508 2222 2272 2251 3516 4065 3404 4309 4185 3164 3776 3722 3171 2744 2404 2150 1768 814 159 24
0 0 0 0 41 110 175 152 18 272 165 334 225 1299 1131 664 162 269 665 1152 1172 1067 1068 1068 1250 1869 2145 2348 2543 2575 2428 2244 2496 2600 3221 3616 3832 4012 4011 4120 3368 2915 2222 2013 1826 1113 371 0 0
0 0 0 2 52 77 99 94 2 0 16 199 231 1444 1261 833 191 209 470 1120 1244 1189 1150 1182 1342 1973 2183 2586 2765 2500 2487 2384 2574 2892 3001 3257 3633 3997 4067 4105 3128 2480 2124 1827 1599 1134 59 0 0

GFSSGP_con_sbcape_204.txt.gz
CAPE
70 36 203 308 338 76 113 122 66 76 72 54 52 44 25 14 0 0 29 426 820 976 1231 1621 1926 1645 1681 1865 1723 1453 1559 1647 1392 1721 1888 1988 1881 1974 1946 1810 1674 1774 1570 1814 1760 1714 1631 1513 1478
93 168 20 119 283 42 44 61 80 77 60 13 0 4 6 2 0 42 192 509 404 619 879 1356 1968 1736 1807 1409 1781 1450 1489 1755 1492 1718 1648 1802 1761 1960 2058 1436 1428 1453 1511 1568 1399 1403 1437 1447 1500
59 310 221 68 49 93 32 55 71 61 60 66 19 0 3 30 40 19 123 206 322 280 520 879 1279 1098 1347 1419 1467 1613 1516 1770 1898 1464 1394 1840 1879 1313 1310 1406 1495 1524 1578 1583 1419 1390 1396 1262 1267
566 145 46 270 51 120 115 26 84 50 60 40 22 3 5 15 36 56 165 318 150 385 1001 1562 1405 961 1445 1567 1704 1489 1600 1502 1217 1287 1735 1691 1560 1732 1652 1715 1697 1603 1560 1556 1612 1670 1597 1520 1412
54 96 74 74 67 91 61 49 38 88 49 47 20 10 6 32 23 250 342 366 432 743 876 1109 1439 853 1148 1188 1030 1133 1329 1407 1049 1530 1720 1665 1733 1834 1765 1482 1384 1363 1352 1347 1329 1232 1334 1433 1487
94 77 26 31 100 210 49 52 80 97 47 18 0 4 11 0 5 112 133 253 406 691 833 384 1411 1437 534 1414 1441 1056 1119 849 1057 1574 1540 1652 1582 1438 1360 1326 1243 1202 1162 1088 1105 1214 1394 1545 1642
82 48 14 10 95 249 163 92 187 180 162 57 0 5 0 3 0 3 23 52 357 612 554 295 829 1277 711 1662 1770 1831 1805 1470 1601 1661 1609 1561 1368 1189 1363 1463 1415 1333 1579 1736 1913 1957 2024 2194 1529
194 112 28 105 72 18 213 239 175 141 103 14 0 0 3 0 70 10 33 93 226 241 292 0 281 792 501 830 1289 1453 1490 1377 1309 1020 1244 1415 1190 1203 1603 1542 1437 2071 2046 2236 2503 2568 2153 2309 1556
165 35 33 54 113 100 218 293 210 182 87 31 0 0 0 0 31 38 81 97 105 88 0 0 202 494 766 1016 1334 1498 913 919 1016 1201 877 211 1059 800 536 743 1768 2508 2332 2741 2452 2497 2730 2395 1626
22 6 18 58 18 294 356 295 286 238 103 15 0 0 0 0 26 86 114 83 43 2 0 0 26 414 624 750 711 588 488 584 844 973 841 781 762 490 1216 1705 2372 2906 2647 2574 2398 462 2356 1772 1035
5 1 5 8 75 238 324 323 422 266 183 0 0 0 0 2 10 46 82 109 31 0 0 0 10 395 515 47 69 14 214 550 710 949 507 161 240 446 658 1027 1362 1689 1796 1943 1902 365 1782 91 793
0 4 10 0 325 367 341 333 440 293 189 0 0 0 0 0 1 31 39 52 39 5 0 0 15 193 259 0 2 73 305 111 552 139 92 473 481 775 584 1110 1570 971 1328 2010 1528 464 1307 416 729
7 3 5 13 170 188 329 311 345 267 16 0 0 0 0 0 0 0 0 0 31 39 38 0 0 2 17 291 334 236 104 386 302 606 1114 297 54 405 892 1343 1728 1016 1313 1701 1460 988 1337 1348 768
0 0 36 13 249 249 236 353 392 136 0 0 1 0 0 0 0 0 0 0 18 26 0 0 5 167 631 440 197 394 156 419 45 613 680 28 0 227 1308 1537 1600 1847 2121 1825 1357 1877 1310 1068 978
0 3 22 30 168 280 191 313 418 191 8 0 0 2 0 0 0 0 0 0 0 4 0 0 530 457 628 620 51 109 570 353 108 814 1048 390 609 1129 1169 1549 1239 2340 1892 1756 1701 1785 1632 1644 957
0 5 11 72 28 161 2 198 396 206 8 0 0 4 0 0 0 5 0 0 0 0 0 0 858 498 573 550 741 1065 688 494 448 977 1067 1430 1237 479 1063 1422 2026 2421 1714 1746 1807 1730 1736 1385 698
0 1 0 23 73 17 81 33 61 161 54 0 0 0 0 0 0 0 0 0 0 0 0 0 522 486 624 374 765 664 18 685 828 749 1014 1027 426 705 1398 1680 1877 2149 1706 1906 1743 1353 1758 1646 1036
0 127 120 7 0 22 0 0 0 241 110 27 0 0 0 0 0 0 0 0 0 0 0 0 303 265 565 733 631 785 224 488 882 736 928 887 1338 798 1516 2033 2119 2088 1160 1709 1374 1272 1131 1467 1024
0 3 112 72 20 0 0 0 33 2 236 177 122 55 0 0 0 0 0 0 0 0 0 64 321 415 426 351 527 694 468 223 643 564 445 600 683 691 1449 1789 1931 1851 1686 1733 1774 1540 1257 369 3
0 84 112 15 5 0 0 0 1 4 99 265 197 102 0 0 0 0 0 0 0 0 0 330 470 517 291 247 419 489 808 708 615 320 249 647 651 654 1006 1661 1682 1774 1679 1850 1441 1251 1200 364 0
0 0 1 14 0 0 3 0 30 2 142 197 257 194 41 0 0 0 0 0 0 0 0 732 704 533 186 160 680 855 699 180 250 144 259 472 546 595 1042 1483 1546 1767 1772 1866 1359 680 359 0 0
0 0 0 15 0 0 1 18 126 46 199 285 232 201 119 21 0 0 0 0 0 0 0 679 661 619 358 306 584 702 444 85 1 13 102 379 647 592 997 1420 1482 1712 1927 1668 1469 491 187 0 0
0 0 0 24 16 3 0 5 0 44 134 261 244 190 159 73 104 0 0 0 10 0 0 759 474 656 944 695 886 428 534 318 356 280 391 317 574 471 1016 1343 1518 1663 1964 1491 945 64 0 0 0
0 0 0 0 0 0 0 0 0 394 265 307 260 235 235 155 168 52 70 0 23 0 0 852 566 530 732 719 751 813 445 489 662 649 498 392 380 822 1130 1450 1458 2024 1896 1252 686 3 0 0 0
0 0 0 0 0 0 0 0 0 222 518 406 326 278 273 254 171 177 152 14 11 87 0 427 877 755 556 545 604 843 817 296 475 645 571 415 514 790 1169 1491 1674 2005 1691 1024 574 13 0 0 0
0 0 0 0 0 0 0 0 154 38 578 513 366 321 239 270 258 215 148 128 0 214 86 98 688 850 712 513 406 773 809 816 544 435 885 509 877 1769 1461 1611 1652 1867 1427 1014 312 2 0 0 0
0 0 0 0 0 0 46 24 34 37 768 524 354 298 201 202 275 286 256 193 88 271 193 118 370 685 753 570 355 503 634 536 775 895 941 853 667 1490 1820 1685 1805 1505 1288 991 310 4 0 0 0
0 0 0 0 0 0 6 24 39 239 303 663 470 171 136 193 223 317 344 247 228 243 322 220 164 322 739 693 520 367 435 396 399 427 566 549 589 668 1063 1733 1773 1442 1110 690 459 1 0 0 0
0 0 0 0 0 0 0 1 0 43 91 68 136 37 39 297 162 344 374 365 288 176 359 436 302 255 500 545 637 529 351 287 284 340 352 514 885 953 1295 1559 1583 1301 1059 632 202 53 0 0 0
0 0 0 0 0 0 0 0 0 4 4 0 0 1 18 11 268 211 448 352 385 291 279 452 525 413 480 448 285 431 419 565 453 355 433 693 1278 1492 1452 1487 1518 1149 870 601 229 5 0 0 0

GFSSGP_con_sbcape_207.txt.gz
CAPE
54 16 85 336 239 104 127 109 121 82 19 21 1 0 7 8 0 0 25 328 744 1010 1078 1287 1884 1597 1376 1606 1708 1762 1540 1424 1855 1889 1802 1859 1972 1865 1771 1814 1928 1567 1887 1906 1789 1610 1511 1469 1500
42 69 12 37 110 49 89 52 49 111 38 0 7 0 7 13 107 277 333 765 788 1031 1125 1293 2137 1883 1679 1835 1461 1665 1733 1590 1778 1855 1890 1772 2138 1828 1263 1400 1450 1536 1758 1606 1568 1518 1472 1417 1123
160 294 54 84 61 53 35 54 74 42 24 18 5 17 3 100 184 171 344 490 634 740 1024 1240 1393 1599 1419 1516 1564 1648 1683 1690 1391 1348 1914 1935 1274 1193 1115 1322 1490 1615 1622 1520 1414 1577 1351 1158 700
226 86 92 73 34 142 81 67 81 59 45 23 11 2 32 11 45 161 246 447 318 628 706 1311 1004 1393 1608 1881 1589 1516 1360 1526 1275 1687 1817 1642 1647 1575 1642 1723 1695 1654 1594 1629 1455 1481 1297 543 703
68 109 35 20 1 95 132 81 126 119 69 50 11 4 0 1 37 152 334 188 447 847 1030 1190 1200 1526 1585 1770 1575 1732 1769 1332 1357 1786 1600 1669 1703 2002 1670 1478 1392 1385 1343 1315 1366 1252 1296 1345 594
114 109 34 12 15 122 76 101 128 127 80 34 9 12 20 8 139 326 295 234 713 793 800 719 1175 1041 1347 1106 778 899 1076 927 1457 1749 1564 1752 1713 1575 1458 1375 1286 1251 1179 1102 1116 1175 1369 1387 984
70 86 10 12 44 23 65 50 86 107 85 25 3 10 3 43 179 194 185 367 649 727 239 636 1153 358 1264 1741 1482 1640 1032 1270 1588 1761 1680 1806 1548 1396 1470 1557 1773 1558 1715 1848 1915 2029 2098 1652 1269
151 63 70 30 48 9 11 151 146 168 156 19 5 17 22 30 17 55 76 315 451 430 146 315 766 421 536 1298 1817 1878 1749 1677 1523 1256 1352 1420 1572 1364 1715 1626 1480 2072 2173 2184 1817 1801 2016 2141 1593
120 38 105 83 66 111 79 159 169 70 18 25 3 2 7 3 17 66 99 157 165 169 6 0 545 426 428 767 1175 1368 1230 1155 1205 1255 1383 280 865 973 1005 1299 2118 2557 2550 2293 1672 1955 1943 2121 1921
52 0 17 123 106 34 40 150 156 70 36 29 0 0 12 88 29 85 85 95 75 38 0 0 261 406 652 1172 1003 779 517 622 718 854 802 761 797 539 1341 1553 2415 2796 2918 2371 2073 762 1722 1871 1257
47 35 8 95 103 110 230 234 324 113 41 0 0 2 68 86 54 82 83 54 42 0 0 0 35 236 500 307 279 64 98 490 706 969 525 135 212 706 848 1089 1255 1276 1516 1682 1701 416 1394 324 855
4 28 17 0 123 229 407 403 291 148 159 14 0 2 63 76 72 92 86 66 8 0 0 0 3 201 406 0 19 16 347 324 685 321 90 564 662 512 716 1094 1389 1076 788 1653 1379 984 559 275 560
0 0 8 10 284 299 339 351 343 245 31 0 0 13 63 61 47 70 71 65 5 0 0 0 0 106 258 0 0 46 209 153 404 674 823 735 476 379 1113 1505 1441 1236 1231 1469 1252 987 952 1281 614
0 0 15 157 257 348 274 323 340 45 0 0 11 33 53 19 22 11 4 26 1 0 6 0 1 35 17 73 144 176 90 279 78 482 48 0 0 728 1135 1130 1118 1764 1710 1232 1525 1346 877 850 806
0 0 50 190 146 202 256 345 340 49 3 8 45 54 47 2 14 0 0 0 17 0 0 0 0 24 286 246 145 195 203 242 71 529 650 0 505 816 1189 1443 1465 1582 1272 1432 1411 1373 1111 677 534
0 0 12 34 86 99 20 52 171 43 29 74 64 51 7 0 0 5 0 0 0 0 0 14 94 276 354 136 0 118 574 171 119 797 984 1219 719 412 1139 1311 1800 1560 1395 1400 1130 1292 1181 887 287
0 0 0 35 43 59 2 46 229 36 33 37 47 29 0 0 0 5 0 0 0 0 0 86 528 202 320 276 505 594 327 610 315 659 770 942 282 950 1518 1556 1689 1414 1084 1241 914 881 1170 728 129
0 1 0 10 2 12 2 0 334 70 29 28 53 26 0 0 0 0 0 0 0 0 0 24 273 247 210 248 368 578 148 134 503 592 863 799 903 1034 1597 1685 1877 1334 1225 1455 1043 552 97 164 96
0 0 0 0 21 3 0 0 342 253 47 17 46 35 6 0 0 0 0 2 0 0 0 24 177 177 168 270 359 448 124 56 448 499 454 390 375 890 1353 1569 1487 1520 1464 1392 1229 946 0 0 0
0 0 0 24 0 0 0 0 0 312 168 24 2 1 10 0 0 0 0 0 0 0 0 11 98 179 233 195 220 240 354 338 412 381 247 576 392 524 1104 1242 1374 1398 1480 1094 578 460 187 0 0
0 0 0 0 0 0 3 0 0 53 280 144 15 0 0 0 0 0 0 0 0 0 0 38 114 261 194 87 387 554 247 64 254 190 102 313 394 431 850 1260 1398 1439 1454 1044 416 27 0 0 0
0 0 0 0 0 0 0 0 0 0 71 326 161 63 25 0 0 0 0 0 0 0 0 88 233 280 148 32 484 563 306 145 99 86 70 124 323 357 784 1221 1425 1522 1293 957 423 38 0 0 0
0 0 0 0 0 0 0 0 0 0 1 144 308 211 71 3 0 0 0 0 0 0 0 265 351 297 203 52 243 570 349 50 40 37 52 70 246 365 566 1127 1323 1708 1308 900 91 0 0 0 0
0 0 0 0 0 0 0 0 0 3 12 25 208 286 147 33 0 0 0 0 0 0 0 423 374 378 233 143 325 291 377 322 508 500 426 144 121 417 652 1112 1224 1635 1209 683 20 0 0 0 0
0 0 0 0 0 0 0 0 0 0 0 0 179 183 232 68 10 0 0 0 0 0 0 412 365 372 369 359 545 546 360 189 334 280 314 129 211 491 880 1028 1201 1632 1326 660 12 0 0 0 0
0 0 0 0 0 0 0 0 0 0 24 39 91 191 215 93 54 4 0 0 6 0 0 393 380 344 375 487 457 494 719 471 131 208 396 358 137 316 1165 1101 1343 1602 1181 594 85 0 0 0 0
0 0 0 0 0 0 0 0 0 15 571 335 212 218 212 142 64 112 2 0 0 5 0 137 549 406 379 380 373 377 509 679 649 405 270 569 393 1071 1513 1274 1565 1464 1138 568 38 0 0 0 0
0 0 0 0 0 0 0 0 0 38 548 434 315 216 160 177 149 116 155 70 0 33 1 0 466 584 575 454 299 252 419 449 500 502 582 550 566 570 1182 1480 1477 1297 1036 667 30 0 0 0 0
0 0 0 0 0 0 0 0 0 0 52 585 332 327 242 143 200 177 166 176 19 32 61 1 77 470 560 546 375 251 158 291 371 320 258 286 304 386 462 720 1388 1179 905 506 122 0 0 0 0
0 0 0 0 0 0 0 0 0 0 0 485 495 389 249 171 188 249 219 158 140 92 156 100 47 251 412 523 440 300 128 138 190 236 195 115 269 507 730 1036 1350 1099 791 394 145 2 0 0 0

GFSSGP_con_sbcape_210.txt.gz
CAPE
2 6 5 145 128 109 106 164 69 34 0 0 0 0 0 0 0 0 8 255 710 896 1050 1248 1610 1612 1664 1803 1644 1660 1547 1793 1826 1926 2002 2039 1914 1931 1936 1724 1596 1651 1769 1691 1538 1563 1369 1337 1315
4 23 41 8 66 35 73 34 38 33 0 0 0 0 0 1 111 86 148 635 857 906 918 1151 1881 1755 1428 1479 1694 1417 1611 1810 1993 1919 2099 1973 1744 1308 1492 1533 1547 1815 1702 1611 1548 1444 1368 1251 1278
43 172 15 42 28 24 33 34 31 1 3 20 6 8 13 124 90 77 257 678 842 898 959 1265 1629 1325 1743 1509 1688 1720 1667 1533 1393 1871 1781 1391 1371 1106 1328 1442 1565 1678 1516 1360 1409 1415 1271 1045 638
300 77 98 48 59 119 91 40 28 32 35 12 0 26 32 47 77 175 480 662 600 758 1009 1270 1331 1207 1309 1580 1641 1776 1816 1324 1552 1808 1655 1576 1501 1620 1657 1624 1688 1715 1680 1678 1628 1622 1347 618 728
31 35 5 2 20 65 140 78 58 74 64 56 27 24 40 69 117 254 401 396 503 655 793 713 1459 1539 1792 1498 1529 1423 1351 1342 1613 1714 1612 1617 1900 1877 1663 1571 1517 1501 1475 1391 1441 1398 1429 1446 665
67 49 0 4 23 39 82 78 126 103 95 59 31 32 30 79 115 236 193 167 567 742 885 770 1391 1534 1595 1434 1486 1588 1375 1262 1897 1702 1613 1809 1860 1760 1635 1514 1417 1374 1299 1286 1237 1229 1400 1535 1076
27 24 6 1 0 39 84 68 135 83 69 66 26 40 22 104 127 234 150 440 589 689 406 741 641 1021 1181 811 963 952 953 1211 1625 1366 1525 1577 1629 1631 1717 1795 2030 1875 1829 1767 1822 2028 2167 2303 1183
60 5 9 1 14 6 86 109 123 161 111 44 41 39 64 152 156 108 176 333 497 266 136 668 609 146 985 1409 1783 1828 1520 1570 1477 1293 1306 1466 1986 1782 1644 1156 1338 2241 1651 1850 1921 1703 1964 2339 1452
160 8 65 57 62 80 57 153 184 52 34 29 18 43 41 59 79 94 179 223 311 232 6 227 491 129 395 708 1123 1471 1373 1327 1462 1582 1610 399 917 990 1387 1622 2288 2381 2250 2115 2012 2033 1896 2053 1884
77 0 14 124 87 39 45 225 194 82 22 23 11 34 31 94 89 71 84 50 117 96 0 4 250 218 518 1209 1169 850 581 634 671 838 904 932 585 668 1611 1683 2376 2469 2701 2315 2336 1048 1843 2053 1453
81 49 3 52 82 77 37 279 195 83 36 1 6 1 25 84 75 38 51 51 24 2 0 0 67 201 478 537 414 131 106 441 706 871 386 98 336 700 814 1086 1318 1494 1677 1426 1541 578 1627 1206 958
49 44 16 2 126 127 170 227 262 111 59 4 0 22 28 47 79 39 31 24 0 0 0 0 0 129 295 119 101 5 228 304 661 564 105 472 557 527 997 1334 1338 902 1036 1544 1518 1360 853 458 557
110 0 8 2 49 154 401 306 265 137 9 0 1 37 44 40 68 69 43 23 0 0 0 0 0 93 280 89 1 19 151 118 349 679 850 507 191 646 1110 1379 1398 1611 1413 1444 1291 1079 1018 1401 796
0 1 11 10 261 314 316 236 294 18 0 0 27 38 63 63 69 75 49 36 0 0 0 0 0 45 107 103 43 74 90 237 134 531 11 0 70 838 1204 1282 1593 1533 1597 1370 1795 1556 1155 1091 963
0 61 312 309 238 315 307 335 271 20 0 34 45 59 64 62 60 47 40 54 4 0 0 0 0 0 60 90 105 157 219 238 87 568 256 0 595 810 1248 1542 1783 1373 1396 1273 1453 1301 1005 989 387
0 0 107 172 238 209 261 199 199 35 32 79 78 94 74 27 38 4 1 17 8 3 0 0 3 0 57 144 96 115 333 323 140 654 856 1000 419 697 1240 1469 1783 1331 1324 1122 1144 1287 914 292 0
0 0 5 148 164 197 30 58 226 56 87 69 90 88 59 0 10 0 0 0 0 6 0 0 15 28 222 72 41 371 540 390 185 569 646 734 543 1334 1492 1655 1629 986 1254 894 682 182 441 19 0
0 0 0 15 16 128 18 1 176 68 106 101 92 103 59 0 0 0 0 0 0 0 0 0 117 84 155 127 241 458 92 107 377 483 652 745 688 1400 1564 1686 1704 1194 1425 1174 776 5 0 0 0
0 0 0 0 23 37 4 0 258 64 19 63 49 29 12 28 0 0 0 0 0 0 0 23 191 44 0 120 314 435 283 93 343 446 541 451 331 980 1276 1344 1399 1340 1261 835 928 487 0 0 0
0 0 0 0 0 2 0 0 189 134 60 19 38 20 3 0 0 0 0 0 0 0 0 8 147 9 8 83 119 228 178 94 226 341 307 397 320 462 1165 1137 1277 1368 1164 747 199 272 0 0 0
0 0 0 0 0 0 0 0 0 163 139 30 19 20 12 0 0 0 0 0 0 0 0 0 44 0 41 45 170 342 105 79 234 194 141 267 363 306 1114 1099 1247 1352 1091 666 172 11 0 0 0
0 0 0 0 0 0 0 0 0 0 162 79 3 14 10 0 0 0 0 0 0 0 0 0 0 0 56 27 292 447 338 240 160 175 82 115 222 245 821 1189 1344 1451 1024 644 237 1 0 0 0
0 0 0 0 0 0 0 0 0 0 10 126 78 13 10 0 0 0 0 0 0 0 0 0 4 11 88 28 150 278 177 61 26 48 73 63 118 300 521 1098 1379 1553 1138 648 20 0 0 0 0
0 0 0 0 0 0 0 0 0 0 0 0 71 85 9 4 0 0 0 0 0 0 0 0 25 91 20 19 51 314 315 178 105 185 284 128 85 292 441 1019 1259 1609 1153 605 6 0 0 0 0
0 0 0 0 0 0 0 0 0 0 0 0 0 191 54 0 0 0 0 0 0 0 0 9 92 192 35 17 40 108 280 217 253 219 250 190 132 333 571 910 1197 1563 1121 517 7 0 0 0 0
0 0 0 0 0 0 0 0 0 0 0 0 0 62 210 73 0 0 0 0 0 0 0 14 150 206 153 109 74 107 120 168 122 171 178 200 122 237 561 982 1151 1626 1232 604 44 0 0 0 0
0 0 0 0 0 0 0 0 0 0 0 395 101 14 222 156 14 0 0 0 0 0 0 0 150 181 251 268 207 188 318 358 290 141 108 382 379 535 1503 1143 1378 1575 1266 708 91 0 0 0 0
0 0 0 0 0 0 0 0 0 0 0 422 100 110 191 223 51 0 0 0 0 0 0 0 104 174 247 310 312 314 390 428 461 437 349 350 522 605 1306 1302 1508 1523 1211 763 92 0 0 0 0
0 0 0 0 0 0 0 0 0 0 0 183 277 140 196 241 73 7 0 0 0 0 0 0 109 178 283 297 318 321 268 290 361 406 378 401 367 461 567 1004 1399 1418 1200 819 209 1 0 0 0
0 0 0 0 0 0 0 0 0 0 0 59 200 245 181 226 167 51 26 0 0 7 7 0 46 306 332 347 315 233 170 192 274 301 286 141 233 246 441 606 889 1267 1166 761 498 65 0 0 0